Wetterdaten: Freitag, 29.11.2019
Datum Zeit Temp. Aussen Temp. o. S. Temp +5cm Feuchte Auss Luftdruck Regen Sonnenschein Regendauer Solar Windben Empfang
29.11.2019 00:00 8,3 C 7,2 C 6,7 C 99 % 1000,0 hPa 0,0 l/m 0 min 2 min 0 W/m 3,2 km/h (1 Bft) 93,62 %
29.11.2019 00:02 8,3 C 7,2 C 6,7 C 99 % 1000,1 hPa 0,0 l/m 0 min 2 min 0 W/m 6,4 km/h (2 Bft) 95,12 %
29.11.2019 00:04 8,3 C 7,2 C 6,7 C 99 % 1000,1 hPa 0,0 l/m 0 min 0 min 0 W/m 3,2 km/h (1 Bft) 95,74 %
29.11.2019 00:08 8,2 C 7,2 C 6,7 C 99 % 1000,1 hPa 0,0 l/m 0 min 0 min 0 W/m 3,2 km/h (1 Bft) 96,81 %
29.11.2019 00:10 8,3 C 7,2 C 6,7 C 99 % 1000,2 hPa 0,0 l/m 0 min 2 min 0 W/m 3,2 km/h (1 Bft) 97,62 %
29.11.2019 00:12 8,2 C 7,2 C 6,7 C 99 % 1000,3 hPa 0,0 l/m 0 min 2 min 0 W/m 3,2 km/h (1 Bft) 98,00 %
29.11.2019 00:14 8,2 C 7,2 C 6,7 C 99 % 1000,3 hPa 0,0 l/m 0 min 0 min 0 W/m 3,2 km/h (1 Bft) 97,92 %
29.11.2019 00:16 8,2 C 7,2 C 6,7 C 99 % 1000,3 hPa 0,0 l/m 0 min 0 min 0 W/m 3,2 km/h (1 Bft) 95,74 %
29.11.2019 00:18 8,2 C 7,2 C 6,7 C 99 % 1000,3 hPa 0,0 l/m 0 min 2 min 0 W/m 0,0 km/h (0 Bft) 97,87 %
29.11.2019 00:20 8,2 C 7,2 C 6,7 C 99 % 1000,4 hPa 0,0 l/m 0 min 0 min 0 W/m 3,2 km/h (1 Bft) 97,62 %
29.11.2019 00:22 8,2 C 7,2 C 6,7 C 99 % 1000,4 hPa 0,0 l/m 0 min 2 min 0 W/m 6,4 km/h (2 Bft) 97,87 %
29.11.2019 00:24 8,2 C 7,2 C 6,7 C 99 % 1000,4 hPa 0,0 l/m 0 min 2 min 0 W/m 3,2 km/h (1 Bft) 97,87 %
29.11.2019 00:26 8,2 C 7,2 C 6,7 C 99 % 1000,5 hPa 0,0 l/m 0 min 2 min 0 W/m 3,2 km/h (1 Bft) 98,00 %
29.11.2019 00:28 8,2 C 7,2 C 7,2 C 99 % 1000,5 hPa 0,0 l/m 0 min 2 min 0 W/m 6,4 km/h (2 Bft) 97,92 %
29.11.2019 00:30 8,2 C 7,2 C 6,7 C 99 % 1000,5 hPa 0,0 l/m 0 min 2 min 0 W/m 9,7 km/h (2 Bft) 97,87 %
29.11.2019 00:32 8,2 C 7,2 C 7,2 C 99 % 1000,5 hPa 0,0 l/m 0 min 2 min 0 W/m 6,4 km/h (2 Bft) 97,87 %
29.11.2019 00:34 8,2 C 7,2 C 6,7 C 99 % 1000,6 hPa 0,2 l/m 0 min 2 min 0 W/m 9,7 km/h (2 Bft) 93,62 %
29.11.2019 00:36 8,2 C 7,2 C 6,7 C 99 % 1000,6 hPa 0,0 l/m 0 min 2 min 0 W/m 6,4 km/h (2 Bft) 100,00 %
29.11.2019 00:38 8,2 C 7,2 C 6,7 C 99 % 1000,6 hPa 0,0 l/m 0 min 2 min 0 W/m 6,4 km/h (2 Bft) 100,00 %
29.11.2019 00:40 8,2 C 7,2 C 6,7 C 99 % 1000,6 hPa 0,0 l/m 0 min 2 min 0 W/m 12,9 km/h (3 Bft) 97,87 %
29.11.2019 00:42 8,2 C 7,2 C 6,7 C 99 % 1000,7 hPa 0,0 l/m 0 min 2 min 0 W/m 3,2 km/h (1 Bft) 97,96 %
29.11.2019 00:44 8,2 C 7,2 C 6,7 C 99 % 1000,7 hPa 0,0 l/m 0 min 2 min 0 W/m 9,7 km/h (2 Bft) 97,87 %
29.11.2019 00:46 8,2 C 7,2 C 6,7 C 99 % 1000,8 hPa 0,0 l/m 0 min 2 min 0 W/m 9,7 km/h (2 Bft) 100,00 %
29.11.2019 00:48 8,1 C 6,7 C 6,7 C 99 % 1000,8 hPa 0,2 l/m 0 min 2 min 0 W/m 16,1 km/h (3 Bft) 100,00 %
29.11.2019 00:50 8,1 C 6,7 C 6,7 C 99 % 1000,8 hPa 0,0 l/m 0 min 2 min 0 W/m 9,7 km/h (2 Bft) 97,67 %
29.11.2019 00:52 8,1 C 6,7 C 6,7 C 99 % 1000,8 hPa 0,0 l/m 0 min 0 min 0 W/m 9,7 km/h (2 Bft) 98,00 %
29.11.2019 00:54 8,1 C 6,7 C 6,7 C 99 % 1000,8 hPa 0,0 l/m 0 min 0 min 0 W/m 6,4 km/h (2 Bft) 97,92 %
29.11.2019 00:56 8,1 C 6,7 C 6,7 C 99 % 1000,9 hPa 0,0 l/m 0 min 0 min 0 W/m 9,7 km/h (2 Bft) 100,00 %
29.11.2019 00:58 8,0 C 6,7 C 6,7 C 99 % 1000,9 hPa 0,0 l/m 0 min 0 min 0 W/m 3,2 km/h (1 Bft) 95,24 %
29.11.2019 01:00 8,0 C 6,7 C 6,7 C 99 % 1001,0 hPa 0,0 l/m 0 min 0 min 0 W/m 6,4 km/h (2 Bft) 100,00 %
29.11.2019 01:02 7,9 C 6,7 C 6,7 C 99 % 1001,0 hPa 0,0 l/m 0 min 0 min 0 W/m 12,9 km/h (3 Bft) 100,00 %
29.11.2019 01:04 7,9 C 6,7 C 6,7 C 99 % 1001,1 hPa 0,0 l/m 0 min 2 min 0 W/m 9,7 km/h (2 Bft) 97,92 %
29.11.2019 01:06 7,9 C 6,7 C 6,7 C 99 % 1001,1 hPa 0,0 l/m 0 min 2 min 0 W/m 9,7 km/h (2 Bft) 95,74 %
29.11.2019 01:08 7,9 C 6,7 C 6,7 C 99 % 1001,2 hPa 0,0 l/m 0 min 2 min 0 W/m 12,9 km/h (3 Bft) 100,00 %
29.11.2019 01:10 7,9 C 6,7 C 6,7 C 99 % 1001,2 hPa 0,0 l/m 0 min 2 min 0 W/m 9,7 km/h (2 Bft) 100,00 %
29.11.2019 01:12 7,9 C 6,7 C 6,7 C 99 % 1001,2 hPa 0,0 l/m 0 min 0 min 0 W/m 12,9 km/h (3 Bft) 100,00 %
29.11.2019 01:14 7,8 C 6,7 C 6,7 C 99 % 1001,2 hPa 0,0 l/m 0 min 0 min 0 W/m 9,7 km/h (2 Bft) 97,87 %
29.11.2019 01:16 7,8 C 6,7 C 6,7 C 99 % 1001,3 hPa 0,0 l/m 0 min 0 min 0 W/m 6,4 km/h (2 Bft) 95,74 %
29.11.2019 01:18 7,8 C 6,7 C 6,1 C 99 % 1001,3 hPa 0,0 l/m 0 min 0 min 0 W/m 6,4 km/h (2 Bft) 97,87 %
29.11.2019 01:20 7,8 C 6,7 C 6,1 C 99 % 1001,3 hPa 0,0 l/m 0 min 0 min 0 W/m 9,7 km/h (2 Bft) 97,87 %
29.11.2019 01:22 7,7 C 6,1 C 6,1 C 99 % 1001,3 hPa 0,0 l/m 0 min 0 min 0 W/m 6,4 km/h (2 Bft) 97,87 %
29.11.2019 01:24 7,7 C 6,1 C 6,1 C 99 % 1001,3 hPa 0,0 l/m 0 min 0 min 0 W/m 9,7 km/h (2 Bft) 97,83 %
29.11.2019 01:26 7,6 C 6,1 C 6,1 C 99 % 1001,4 hPa 0,0 l/m 0 min 0 min 0 W/m 9,7 km/h (2 Bft) 97,67 %
29.11.2019 01:28 7,6 C 6,1 C 6,1 C 99 % 1001,4 hPa 0,0 l/m 0 min 0 min 0 W/m 6,4 km/h (2 Bft) 98,00 %
29.11.2019 01:30 7,6 C 6,1 C 6,1 C 99 % 1001,4 hPa 0,0 l/m 0 min 0 min 0 W/m 9,7 km/h (2 Bft) 97,83 %
29.11.2019 01:32 7,5 C 6,1 C 6,1 C 99 % 1001,5 hPa 0,0 l/m 0 min 0 min 0 W/m 9,7 km/h (2 Bft) 97,87 %
29.11.2019 01:34 7,5 C 6,1 C 6,1 C 99 % 1001,5 hPa 0,0 l/m 0 min 0 min 0 W/m 6,4 km/h (2 Bft) 95,74 %
29.11.2019 01:36 7,4 C 6,1 C 6,1 C 99 % 1001,6 hPa 0,0 l/m 0 min 0 min 0 W/m 16,1 km/h (3 Bft) 95,83 %
29.11.2019 01:38 7,4 C 6,1 C 6,1 C 99 % 1001,6 hPa 0,0 l/m 0 min 0 min 0 W/m 19,3 km/h (3 Bft) 95,74 %
29.11.2019 01:40 7,3 C 6,1 C 5,6 C 99 % 1001,6 hPa 0,0 l/m 0 min 2 min 0 W/m 9,7 km/h (2 Bft) 97,67 %
29.11.2019 01:42 7,3 C 6,1 C 5,6 C 99 % 1001,6 hPa 0,0 l/m 0 min 2 min 0 W/m 6,4 km/h (2 Bft) 95,65 %
29.11.2019 01:44 7,2 C 6,1 C 5,6 C 99 % 1001,6 hPa 0,0 l/m 0 min 2 min 0 W/m 16,1 km/h (3 Bft) 98,00 %
29.11.2019 01:46 7,1 C 5,6 C 5,6 C 99 % 1001,7 hPa 0,0 l/m 0 min 2 min 0 W/m 9,7 km/h (2 Bft) 95,83 %
29.11.2019 01:48 7,1 C 5,6 C 5,6 C 99 % 1001,8 hPa 0,0 l/m 0 min 2 min 0 W/m 16,1 km/h (3 Bft) 97,87 %
29.11.2019 01:50 7,0 C 5,6 C 5,6 C 99 % 1001,8 hPa 0,0 l/m 0 min 2 min 0 W/m 9,7 km/h (2 Bft) 97,87 %
29.11.2019 01:52 7,0 C 5,6 C 5,6 C 99 % 1001,9 hPa 0,0 l/m 0 min 2 min 0 W/m 9,7 km/h (2 Bft) 97,87 %
29.11.2019 01:54 6,9 C 5,6 C 5,6 C 99 % 1001,9 hPa 0,0 l/m 0 min 0 min 0 W/m 12,9 km/h (3 Bft) 97,87 %
29.11.2019 01:56 6,9 C 5,6 C 5,6 C 99 % 1001,8 hPa 0,2 l/m 0 min 2 min 0 W/m 9,7 km/h (2 Bft) 97,87 %
29.11.2019 01:58 6,8 C 5,6 C 5,6 C 99 % 1001,9 hPa 0,0 l/m 0 min 2 min 0 W/m 9,7 km/h (2 Bft) 97,62 %
29.11.2019 02:00 6,8 C 5,6 C 5,6 C 99 % 1001,9 hPa 0,0 l/m 0 min 2 min 0 W/m 3,2 km/h (1 Bft) 98,00 %
29.11.2019 02:02 6,8 C 5,6 C 5,6 C 99 % 1002,0 hPa 0,0 l/m 0 min 2 min 0 W/m 3,2 km/h (1 Bft) 97,87 %
29.11.2019 02:04 6,8 C 5,6 C 5,6 C 99 % 1002,0 hPa 0,0 l/m 0 min 2 min 0 W/m 3,2 km/h (1 Bft) 97,92 %
29.11.2019 02:06 6,7 C 5,6 C 5,6 C 99 % 1002,0 hPa 0,0 l/m 0 min 2 min 0 W/m 3,2 km/h (1 Bft) 97,87 %
29.11.2019 02:08 6,7 C 5,6 C 5,6 C 99 % 1002,1 hPa 0,0 l/m 0 min 0 min 0 W/m 6,4 km/h (2 Bft) 100,00 %
29.11.2019 02:10 6,7 C 5,6 C 5,6 C 99 % 1002,1 hPa 0,0 l/m 0 min 0 min 0 W/m 0,0 km/h (0 Bft) 100,00 %
29.11.2019 02:12 6,7 C 5,6 C 5,6 C 99 % 1002,1 hPa 0,0 l/m 0 min 0 min 0 W/m 0,0 km/h (0 Bft) 100,00 %
29.11.2019 02:14 6,7 C 5,6 C 5,6 C 99 % 1002,2 hPa 0,0 l/m 0 min 2 min 0 W/m 3,2 km/h (1 Bft) 100,00 %
29.11.2019 02:16 6,7 C 5,6 C 5,0 C 99 % 1002,2 hPa 0,0 l/m 0 min 0 min 0 W/m 0,0 km/h (0 Bft) 97,62 %
29.11.2019 02:18 6,7 C 5,6 C 5,6 C 99 % 1002,2 hPa 0,0 l/m 0 min 0 min 0 W/m 0,0 km/h (0 Bft) 100,00 %
29.11.2019 02:20 6,6 C 5,6 C 5,6 C 99 % 1002,2 hPa 0,0 l/m 0 min 0 min 0 W/m 0,0 km/h (0 Bft) 100,00 %
29.11.2019 02:22 6,6 C 5,6 C 5,0 C 99 % 1002,3 hPa 0,0 l/m 0 min 0 min 0 W/m 0,0 km/h (0 Bft) 100,00 %
29.11.2019 02:24 6,6 C 5,6 C 5,6 C 99 % 1002,3 hPa 0,0 l/m 0 min 0 min 0 W/m 0,0 km/h (0 Bft) 100,00 %
29.11.2019 02:26 6,6 C 5,6 C 5,0 C 99 % 1002,4 hPa 0,0 l/m 0 min 2 min 0 W/m 0,0 km/h (0 Bft) 100,00 %
29.11.2019 02:28 6,6 C 5,6 C 5,0 C 99 % 1002,4 hPa 0,0 l/m 0 min 0 min 0 W/m 0,0 km/h (0 Bft) 100,00 %
29.11.2019 02:30 6,6 C 5,6 C 5,0 C 99 % 1002,4 hPa 0,0 l/m 0 min 0 min 0 W/m 0,0 km/h (0 Bft) 100,00 %
29.11.2019 02:32 6,6 C 5,6 C 5,0 C 99 % 1002,5 hPa 0,0 l/m 0 min 0 min 0 W/m 0,0 km/h (0 Bft) 100,00 %
29.11.2019 02:34 6,6 C 5,6 C 5,0 C 99 % 1002,5 hPa 0,0 l/m 0 min 0 min 0 W/m 0,0 km/h (0 Bft) 97,62 %
29.11.2019 02:36 6,6 C 5,6 C 5,0 C 99 % 1002,5 hPa 0,0 l/m 0 min 0 min 0 W/m 3,2 km/h (1 Bft) 96,00 %
29.11.2019 02:38 6,6 C 5,6 C 5,0 C 99 % 1002,6 hPa 0,0 l/m 0 min 0 min 0 W/m 0,0 km/h (0 Bft) 95,65 %
29.11.2019 02:40 6,6 C 5,6 C 5,0 C 99 % 1002,6 hPa 0,0 l/m 0 min 0 min 0 W/m 0,0 km/h (0 Bft) 95,92 %
29.11.2019 02:42 6,6 C 5,6 C 5,0 C 99 % 1002,7 hPa 0,0 l/m 0 min 0 min 0 W/m 0,0 km/h (0 Bft) 95,74 %
29.11.2019 02:44 6,6 C 5,6 C 5,0 C 99 % 1002,7 hPa 0,0 l/m 0 min 0 min 0 W/m 0,0 km/h (0 Bft) 95,74 %
29.11.2019 02:46 6,5 C 5,6 C 5,0 C 99 % 1002,7 hPa 0,0 l/m 0 min 0 min 0 W/m 3,2 km/h (1 Bft) 92,86 %
29.11.2019 02:48 6,5 C 5,6 C 5,0 C 99 % 1002,8 hPa 0,0 l/m 0 min 0 min 0 W/m 0,0 km/h (0 Bft) 93,62 %
29.11.2019 02:50 6,5 C 5,6 C 5,0 C 99 % 1002,8 hPa 0,0 l/m 0 min 0 min 0 W/m 0,0 km/h (0 Bft) 95,74 %
29.11.2019 02:52 6,5 C 5,6 C 5,0 C 99 % 1002,8 hPa 0,0 l/m 0 min 0 min 0 W/m 3,2 km/h (1 Bft) 95,92 %
29.11.2019 02:54 6,5 C 5,6 C 5,0 C 99 % 1002,8 hPa 0,0 l/m 0 min 0 min 0 W/m 0,0 km/h (0 Bft) 91,84 %
29.11.2019 02:56 6,5 C 5,6 C 5,6 C 99 % 1002,8 hPa 0,0 l/m 0 min 0 min 0 W/m 0,0 km/h (0 Bft) 95,65 %
29.11.2019 02:58 6,5 C 5,6 C 5,6 C 99 % 1002,9 hPa 0,0 l/m 0 min 0 min 0 W/m 0,0 km/h (0 Bft) 95,74 %
29.11.2019 03:00 6,5 C 5,6 C 5,0 C 99 % 1002,9 hPa 0,0 l/m 0 min 0 min 0 W/m 0,0 km/h (0 Bft) 93,02 %
29.11.2019 03:02 6,5 C 5,6 C 5,0 C 99 % 1002,9 hPa 0,0 l/m 0 min 0 min 0 W/m 0,0 km/h (0 Bft) 93,48 %
29.11.2019 03:04 6,5 C 5,6 C 5,0 C 99 % 1003,0 hPa 0,0 l/m 0 min 0 min 0 W/m 3,2 km/h (1 Bft) 96,00 %
29.11.2019 03:06 6,5 C 5,6 C 5,0 C 99 % 1003,0 hPa 0,0 l/m 0 min 0 min 0 W/m 3,2 km/h (1 Bft) 97,96 %
29.11.2019 03:08 6,5 C 5,6 C 5,6 C 99 % 1003,0 hPa 0,0 l/m 0 min 0 min 0 W/m 3,2 km/h (1 Bft) 95,65 %
29.11.2019 03:10 6,5 C 5,6 C 5,6 C 99 % 1003,0 hPa 0,0 l/m 0 min 0 min 0 W/m 3,2 km/h (1 Bft) 95,74 %
29.11.2019 03:12 6,5 C 5,6 C 5,6 C 99 % 1003,0 hPa 0,0 l/m 0 min 0 min 0 W/m 3,2 km/h (1 Bft) 95,74 %
29.11.2019 03:14 6,5 C 5,6 C 5,6 C 99 % 1003,0 hPa 0,0 l/m 0 min 0 min 0 W/m 6,4 km/h (2 Bft) 93,62 %
29.11.2019 03:16 6,5 C 5,6 C 5,6 C 99 % 1003,1 hPa 0,0 l/m 0 min 0 min 0 W/m 0,0 km/h (0 Bft) 92,86 %
29.11.2019 03:18 6,5 C 5,6 C 5,6 C 99 % 1003,1 hPa 0,0 l/m 0 min 0 min 0 W/m 0,0 km/h (0 Bft) 97,87 %
29.11.2019 03:20 6,5 C 5,6 C 5,6 C 99 % 1003,1 hPa 0,0 l/m 0 min 0 min 0 W/m 3,2 km/h (1 Bft) 94,00 %
29.11.2019 03:22 6,5 C 5,6 C 5,6 C 99 % 1003,1 hPa 0,0 l/m 0 min 0 min 0 W/m 0,0 km/h (0 Bft) 97,92 %
29.11.2019 03:24 6,5 C 5,6 C 5,6 C 99 % 1003,2 hPa 0,0 l/m 0 min 0 min 0 W/m 3,2 km/h (1 Bft) 97,87 %
29.11.2019 03:26 6,5 C 5,6 C 5,6 C 99 % 1003,2 hPa 0,0 l/m 0 min 0 min 0 W/m 0,0 km/h (0 Bft) 97,62 %
29.11.2019 03:28 6,5 C 5,6 C 5,6 C 99 % 1003,3 hPa 0,0 l/m 0 min 0 min 0 W/m 3,2 km/h (1 Bft) 93,62 %
29.11.2019 03:30 6,5 C 5,6 C 5,6 C 99 % 1003,3 hPa 0,0 l/m 0 min 0 min 0 W/m 3,2 km/h (1 Bft) 97,87 %
29.11.2019 03:32 6,6 C 5,6 C 5,6 C 99 % 1003,3 hPa 0,0 l/m 0 min 0 min 0 W/m 3,2 km/h (1 Bft) 96,00 %
29.11.2019 03:34 6,6 C 5,6 C 5,6 C 99 % 1003,3 hPa 0,0 l/m 0 min 0 min 0 W/m 3,2 km/h (1 Bft) 97,92 %
29.11.2019 03:36 6,6 C 5,6 C 5,6 C 99 % 1003,3 hPa 0,0 l/m 0 min 0 min 0 W/m 3,2 km/h (1 Bft) 97,87 %
29.11.2019 03:38 6,6 C 5,6 C 5,6 C 99 % 1003,3 hPa 0,0 l/m 0 min 0 min 0 W/m 3,2 km/h (1 Bft) 100,00 %
29.11.2019 03:40 6,6 C 5,6 C 5,6 C 99 % 1003,3 hPa 0,0 l/m 0 min 0 min 0 W/m 6,4 km/h (2 Bft) 100,00 %
29.11.2019 03:42 6,6 C 5,6 C 5,6 C 99 % 1003,3 hPa 0,0 l/m 0 min 0 min 0 W/m 6,4 km/h (2 Bft) 97,87 %
29.11.2019 03:44 6,6 C 5,6 C 5,6 C 99 % 1003,4 hPa 0,0 l/m 0 min 0 min 0 W/m 3,2 km/h (1 Bft) 97,87 %
29.11.2019 03:46 6,6 C 5,6 C 5,6 C 99 % 1003,3 hPa 0,0 l/m 0 min 0 min 0 W/m 6,4 km/h (2 Bft) 100,00 %
29.11.2019 03:48 6,6 C 5,6 C 5,6 C 99 % 1003,4 hPa 0,0 l/m 0 min 0 min 0 W/m 6,4 km/h (2 Bft) 97,92 %
29.11.2019 03:50 6,6 C 5,6 C 5,6 C 99 % 1003,5 hPa 0,0 l/m 0 min 0 min 0 W/m 0,0 km/h (0 Bft) 97,87 %
29.11.2019 03:52 6,6 C 5,6 C 5,6 C 99 % 1003,4 hPa 0,0 l/m 0 min 0 min 0 W/m 0,0 km/h (0 Bft) 97,62 %
29.11.2019 03:54 6,6 C 5,6 C 5,6 C 99 % 1003,5 hPa 0,0 l/m 0 min 0 min 0 W/m 6,4 km/h (2 Bft) 98,00 %
29.11.2019 03:56 6,6 C 5,6 C 5,6 C 99 % 1003,6 hPa 0,0 l/m 0 min 0 min 0 W/m 0,0 km/h (0 Bft) 100,00 %
29.11.2019 03:58 6,6 C 5,6 C 5,6 C 99 % 1003,6 hPa 0,0 l/m 0 min 0 min 0 W/m 6,4 km/h (2 Bft) 97,87 %
29.11.2019 04:00 6,6 C 5,6 C 5,6 C 99 % 1003,6 hPa 0,0 l/m 0 min 0 min 0 W/m 0,0 km/h (0 Bft) 95,74 %
29.11.2019 04:02 6,6 C 5,6 C 5,6 C 99 % 1003,6 hPa 0,0 l/m 0 min 0 min 0 W/m 0,0 km/h (0 Bft) 100,00 %
29.11.2019 04:04 6,6 C 5,6 C 5,6 C 99 % 1003,6 hPa 0,0 l/m 0 min 0 min 0 W/m 6,4 km/h (2 Bft) 95,74 %
29.11.2019 04:06 6,6 C 5,6 C 5,0 C 99 % 1003,7 hPa 0,0 l/m 0 min 0 min 0 W/m 9,7 km/h (2 Bft) 97,83 %
29.11.2019 04:08 6,6 C 5,6 C 5,0 C 99 % 1003,6 hPa 0,0 l/m 0 min 0 min 0 W/m 0,0 km/h (0 Bft) 97,87 %
29.11.2019 04:10 6,5 C 5,6 C 5,0 C 99 % 1003,7 hPa 0,0 l/m 0 min 0 min 0 W/m 12,9 km/h (3 Bft) 97,87 %
29.11.2019 04:12 6,5 C 5,6 C 5,0 C 99 % 1003,7 hPa 0,0 l/m 0 min 0 min 0 W/m 16,1 km/h (3 Bft) 97,87 %
29.11.2019 04:14 6,5 C 5,0 C 5,0 C 99 % 1003,7 hPa 0,0 l/m 0 min 0 min 0 W/m 12,9 km/h (3 Bft) 97,87 %
29.11.2019 04:16 6,4 C 5,0 C 5,0 C 99 % 1003,7 hPa 0,0 l/m 0 min 0 min 0 W/m 3,2 km/h (1 Bft) 97,87 %
29.11.2019 04:18 6,4 C 5,0 C 5,0 C 99 % 1003,7 hPa 0,0 l/m 0 min 0 min 0 W/m 9,7 km/h (2 Bft) 97,62 %
29.11.2019 04:20 6,3 C 5,0 C 5,0 C 99 % 1003,7 hPa 0,0 l/m 0 min 0 min 0 W/m 6,4 km/h (2 Bft) 97,87 %
29.11.2019 04:22 6,3 C 5,0 C 5,0 C 99 % 1003,8 hPa 0,0 l/m 0 min 0 min 0 W/m 6,4 km/h (2 Bft) 97,96 %
29.11.2019 04:24 6,3 C 5,0 C 5,0 C 99 % 1003,9 hPa 0,0 l/m 0 min 0 min 0 W/m 9,7 km/h (2 Bft) 95,92 %
29.11.2019 04:26 6,2 C 5,0 C 5,0 C 99 % 1003,9 hPa 0,0 l/m 0 min 0 min 0 W/m 9,7 km/h (2 Bft) 97,87 %
29.11.2019 04:28 6,2 C 5,0 C 5,0 C 99 % 1003,9 hPa 0,0 l/m 0 min 0 min 0 W/m 6,4 km/h (2 Bft) 97,87 %
29.11.2019 04:30 6,2 C 5,0 C 5,0 C 99 % 1004,0 hPa 0,0 l/m 0 min 0 min 0 W/m 9,7 km/h (2 Bft) 97,62 %
29.11.2019 04:32 6,1 C 5,0 C 5,0 C 99 % 1004,0 hPa 0,0 l/m 0 min 0 min 0 W/m 3,2 km/h (1 Bft) 98,00 %
29.11.2019 04:34 6,1 C 5,0 C 4,4 C 99 % 1004,0 hPa 0,0 l/m 0 min 0 min 0 W/m 0,0 km/h (0 Bft) 95,83 %
29.11.2019 04:36 6,1 C 5,0 C 4,4 C 99 % 1004,0 hPa 0,0 l/m 0 min 0 min 0 W/m 0,0 km/h (0 Bft) 95,74 %
29.11.2019 04:38 6,1 C 5,0 C 4,4 C 99 % 1004,1 hPa 0,0 l/m 0 min 0 min 0 W/m 0,0 km/h (0 Bft) 97,87 %
29.11.2019 04:40 6,1 C 4,4 C 4,4 C 98 % 1004,1 hPa 0,0 l/m 0 min 0 min 0 W/m 0,0 km/h (0 Bft) 97,87 %
29.11.2019 04:42 6,1 C 4,4 C 4,4 C 98 % 1004,2 hPa 0,0 l/m 0 min 0 min 0 W/m 0,0 km/h (0 Bft) 95,24 %
29.11.2019 04:44 6,0 C 4,4 C 4,4 C 98 % 1004,2 hPa 0,0 l/m 0 min 0 min 0 W/m 0,0 km/h (0 Bft) 100,00 %
29.11.2019 04:46 6,0 C 4,4 C 4,4 C 98 % 1004,2 hPa 0,0 l/m 0 min 0 min 0 W/m 0,0 km/h (0 Bft) 97,83 %
29.11.2019 04:48 6,0 C 4,4 C 4,4 C 98 % 1004,2 hPa 0,0 l/m 0 min 0 min 0 W/m 3,2 km/h (1 Bft) 100,00 %
29.11.2019 04:50 5,9 C 4,4 C 3,9 C 98 % 1004,3 hPa 0,0 l/m 0 min 0 min 0 W/m 0,0 km/h (0 Bft) 100,00 %
29.11.2019 04:52 5,9 C 4,4 C 3,9 C 98 % 1004,3 hPa 0,0 l/m 0 min 0 min 0 W/m 0,0 km/h (0 Bft) 100,00 %
29.11.2019 04:54 5,9 C 4,4 C 3,9 C 98 % 1004,4 hPa 0,0 l/m 0 min 0 min 0 W/m 0,0 km/h (0 Bft) 100,00 %
29.11.2019 04:56 5,8 C 3,9 C 3,9 C 98 % 1004,4 hPa 0,0 l/m 0 min 0 min 0 W/m 6,4 km/h (2 Bft) 100,00 %
29.11.2019 04:58 5,8 C 3,9 C 3,9 C 98 % 1004,4 hPa 0,0 l/m 0 min 0 min 0 W/m 0,0 km/h (0 Bft) 100,00 %
29.11.2019 05:00 5,7 C 3,9 C 3,9 C 98 % 1004,5 hPa 0,0 l/m 0 min 0 min 0 W/m 0,0 km/h (0 Bft) 100,00 %
29.11.2019 05:02 5,7 C 3,9 C 3,9 C 98 % 1004,5 hPa 0,0 l/m 0 min 0 min 0 W/m 0,0 km/h (0 Bft) 100,00 %
29.11.2019 05:04 5,7 C 3,9 C 3,9 C 98 % 1004,6 hPa 0,0 l/m 0 min 0 min 0 W/m 0,0 km/h (0 Bft) 97,83 %
29.11.2019 05:06 5,6 C 3,9 C 3,3 C 98 % 1004,6 hPa 0,0 l/m 0 min 0 min 0 W/m 0,0 km/h (0 Bft) 100,00 %
29.11.2019 05:08 5,6 C 3,9 C 3,3 C 98 % 1004,6 hPa 0,0 l/m 0 min 0 min 0 W/m 0,0 km/h (0 Bft) 100,00 %
29.11.2019 05:10 5,6 C 3,9 C 3,3 C 98 % 1004,7 hPa 0,0 l/m 0 min 0 min 0 W/m 0,0 km/h (0 Bft) 97,83 %
29.11.2019 05:12 5,6 C 3,9 C 3,3 C 98 % 1004,7 hPa 0,0 l/m 0 min 0 min 0 W/m 0,0 km/h (0 Bft) 100,00 %
29.11.2019 05:14 5,5 C 3,9 C 3,3 C 98 % 1004,8 hPa 0,0 l/m 0 min 0 min 0 W/m 0,0 km/h (0 Bft) 97,96 %
29.11.2019 05:16 5,5 C 3,9 C 3,3 C 98 % 1004,8 hPa 0,0 l/m 0 min 0 min 0 W/m 0,0 km/h (0 Bft) 97,83 %
29.11.2019 05:18 5,4 C 3,9 C 3,3 C 98 % 1004,8 hPa 0,0 l/m 0 min 0 min 0 W/m 0,0 km/h (0 Bft) 97,87 %
29.11.2019 05:20 5,4 C 3,9 C 3,3 C 98 % 1004,9 hPa 0,0 l/m 0 min 0 min 0 W/m 0,0 km/h (0 Bft) 97,87 %
29.11.2019 05:22 5,4 C 3,9 C 3,3 C 98 % 1004,8 hPa 0,0 l/m 0 min 0 min 0 W/m 0,0 km/h (0 Bft) 97,87 %
29.11.2019 05:24 5,3 C 3,9 C 3,3 C 98 % 1004,9 hPa 0,0 l/m 0 min 0 min 0 W/m 0,0 km/h (0 Bft) 95,24 %
29.11.2019 05:26 5,3 C 3,9 C 3,3 C 98 % 1004,9 hPa 0,0 l/m 0 min 0 min 0 W/m 0,0 km/h (0 Bft) 97,87 %
29.11.2019 05:28 5,3 C 3,3 C 3,3 C 98 % 1005,0 hPa 0,0 l/m 0 min 0 min 0 W/m 0,0 km/h (0 Bft) 97,87 %
29.11.2019 05:30 5,2 C 3,9 C 3,3 C 98 % 1005,0 hPa 0,0 l/m 0 min 0 min 0 W/m 0,0 km/h (0 Bft) 95,74 %
29.11.2019 05:32 5,2 C 3,3 C 2,8 C 98 % 1005,0 hPa 0,0 l/m 0 min 0 min 0 W/m 0,0 km/h (0 Bft) 97,87 %
29.11.2019 05:34 5,2 C 3,3 C 2,8 C 98 % 1005,1 hPa 0,0 l/m 0 min 0 min 0 W/m 0,0 km/h (0 Bft) 97,83 %
29.11.2019 05:36 5,1 C 3,3 C 2,8 C 98 % 1005,1 hPa 0,0 l/m 0 min 0 min 0 W/m 0,0 km/h (0 Bft) 98,00 %
29.11.2019 05:38 5,1 C 3,3 C 3,3 C 98 % 1005,2 hPa 0,0 l/m 0 min 0 min 0 W/m 0,0 km/h (0 Bft) 95,74 %
29.11.2019 05:40 5,1 C 3,3 C 3,3 C 98 % 1005,2 hPa 0,0 l/m 0 min 0 min 0 W/m 0,0 km/h (0 Bft) 97,92 %
29.11.2019 05:42 5,1 C 3,3 C 3,3 C 98 % 1005,2 hPa 0,0 l/m 0 min 0 min 0 W/m 0,0 km/h (0 Bft) 97,87 %
29.11.2019 05:44 5,0 C 3,3 C 2,8 C 98 % 1005,2 hPa 0,0 l/m 0 min 0 min 0 W/m 0,0 km/h (0 Bft) 97,87 %
29.11.2019 05:46 5,0 C 3,3 C 2,8 C 98 % 1005,3 hPa 0,0 l/m 0 min 0 min 0 W/m 0,0 km/h (0 Bft) 93,62 %
29.11.2019 05:48 4,9 C 3,3 C 3,3 C 98 % 1005,3 hPa 0,0 l/m 0 min 0 min 0 W/m 0,0 km/h (0 Bft) 97,87 %
29.11.2019 05:50 4,9 C 3,3 C 2,8 C 98 % 1005,3 hPa 0,0 l/m 0 min 0 min 0 W/m 0,0 km/h (0 Bft) 97,83 %
29.11.2019 05:52 4,9 C 3,3 C 2,8 C 98 % 1005,3 hPa 0,0 l/m 0 min 0 min 0 W/m 0,0 km/h (0 Bft) 95,35 %
29.11.2019 05:54 4,8 C 3,3 C 2,8 C 98 % 1005,4 hPa 0,0 l/m 0 min 0 min 0 W/m 0,0 km/h (0 Bft) 98,00 %
29.11.2019 05:56 4,8 C 3,3 C 2,8 C 98 % 1005,4 hPa 0,0 l/m 0 min 0 min 0 W/m 0,0 km/h (0 Bft) 97,92 %
29.11.2019 05:58 4,8 C 3,3 C 3,3 C 98 % 1005,5 hPa 0,0 l/m 0 min 0 min 0 W/m 0,0 km/h (0 Bft) 97,87 %
29.11.2019 06:00 4,8 C 3,3 C 3,3 C 98 % 1005,5 hPa 0,0 l/m 0 min 0 min 0 W/m 0,0 km/h (0 Bft) 97,62 %
29.11.2019 06:02 4,7 C 3,3 C 3,3 C 98 % 1005,5 hPa 0,0 l/m 0 min 0 min 0 W/m 0,0 km/h (0 Bft) 94,00 %
29.11.2019 06:04 4,7 C 3,3 C 3,3 C 97 % 1005,6 hPa 0,0 l/m 0 min 0 min 0 W/m 0,0 km/h (0 Bft) 97,92 %
29.11.2019 06:06 4,7 C 3,3 C 3,3 C 97 % 1005,6 hPa 0,0 l/m 0 min 0 min 0 W/m 0,0 km/h (0 Bft) 100,00 %
29.11.2019 06:08 4,6 C 3,3 C 3,3 C 98 % 1005,6 hPa 0,0 l/m 0 min 0 min 0 W/m 3,2 km/h (1 Bft) 97,87 %
29.11.2019 06:10 4,6 C 3,3 C 2,8 C 98 % 1005,7 hPa 0,0 l/m 0 min 0 min 0 W/m 3,2 km/h (1 Bft) 100,00 %
29.11.2019 06:12 4,6 C 3,3 C 2,8 C 98 % 1005,7 hPa 0,0 l/m 0 min 0 min 0 W/m 3,2 km/h (1 Bft) 100,00 %
29.11.2019 06:14 4,6 C 3,3 C 2,8 C 98 % 1005,8 hPa 0,0 l/m 0 min 0 min 0 W/m 0,0 km/h (0 Bft) 100,00 %
29.11.2019 06:16 4,5 C 3,3 C 2,8 C 98 % 1005,8 hPa 0,0 l/m 0 min 0 min 0 W/m 0,0 km/h (0 Bft) 96,00 %
29.11.2019 06:18 4,4 C 3,3 C 2,8 C 98 % 1005,9 hPa 0,0 l/m 0 min 0 min 0 W/m 3,2 km/h (1 Bft) 97,92 %
29.11.2019 06:20 4,4 C 3,3 C 2,8 C 97 % 1005,9 hPa 0,0 l/m 0 min 0 min 0 W/m 3,2 km/h (1 Bft) 93,62 %
29.11.2019 06:22 4,4 C 3,3 C 2,8 C 97 % 1005,9 hPa 0,0 l/m 0 min 0 min 0 W/m 0,0 km/h (0 Bft) 95,24 %
29.11.2019 06:24 4,4 C 3,3 C 2,8 C 97 % 1006,0 hPa 0,0 l/m 0 min 0 min 0 W/m 0,0 km/h (0 Bft) 95,74 %
29.11.2019 06:26 4,4 C 3,3 C 2,8 C 97 % 1005,9 hPa 0,0 l/m 0 min 0 min 0 W/m 0,0 km/h (0 Bft) 95,74 %
29.11.2019 06:28 4,3 C 3,3 C 2,8 C 97 % 1006,0 hPa 0,0 l/m 0 min 0 min 0 W/m 0,0 km/h (0 Bft) 92,00 %
29.11.2019 06:30 4,3 C 3,3 C 2,8 C 97 % 1006,0 hPa 0,0 l/m 0 min 0 min 0 W/m 0,0 km/h (0 Bft) 95,83 %
29.11.2019 06:32 4,3 C 3,3 C 2,8 C 97 % 1006,0 hPa 0,0 l/m 0 min 0 min 0 W/m 3,2 km/h (1 Bft) 95,74 %
29.11.2019 06:34 4,3 C 3,3 C 2,8 C 97 % 1006,0 hPa 0,0 l/m 0 min 0 min 0 W/m 3,2 km/h (1 Bft) 95,74 %
29.11.2019 06:36 4,3 C 3,3 C 2,8 C 97 % 1006,1 hPa 0,0 l/m 0 min 0 min 0 W/m 0,0 km/h (0 Bft) 95,74 %
29.11.2019 06:38 4,3 C 3,3 C 2,8 C 97 % 1006,1 hPa 0,0 l/m 0 min 0 min 0 W/m 3,2 km/h (1 Bft) 95,65 %
29.11.2019 06:40 4,2 C 3,3 C 2,8 C 97 % 1006,2 hPa 0,0 l/m 0 min 0 min 0 W/m 0,0 km/h (0 Bft) 93,62 %
29.11.2019 06:42 4,2 C 2,8 C 2,8 C 97 % 1006,2 hPa 0,0 l/m 0 min 0 min 0 W/m 3,2 km/h (1 Bft) 95,74 %
29.11.2019 06:44 4,2 C 2,8 C 2,8 C 97 % 1006,2 hPa 0,0 l/m 0 min 0 min 0 W/m 0,0 km/h (0 Bft) 95,74 %
29.11.2019 06:46 4,2 C 2,8 C 2,8 C 97 % 1006,2 hPa 0,0 l/m 0 min 0 min 0 W/m 0,0 km/h (0 Bft) 95,74 %
29.11.2019 06:48 4,2 C 2,8 C 2,8 C 97 % 1006,3 hPa 0,0 l/m 0 min 0 min 0 W/m 0,0 km/h (0 Bft) 95,65 %
29.11.2019 06:50 4,2 C 2,8 C 2,8 C 97 % 1006,3 hPa 0,0 l/m 0 min 0 min 0 W/m 0,0 km/h (0 Bft) 95,35 %
29.11.2019 06:52 4,1 C 2,8 C 2,8 C 97 % 1006,4 hPa 0,0 l/m 0 min 0 min 0 W/m 0,0 km/h (0 Bft) 94,00 %
29.11.2019 06:54 4,1 C 2,8 C 2,2 C 97 % 1006,4 hPa 0,0 l/m 0 min 0 min 0 W/m 0,0 km/h (0 Bft) 97,92 %
29.11.2019 06:56 4,1 C 2,8 C 2,2 C 97 % 1006,5 hPa 0,0 l/m 0 min 0 min 0 W/m 3,2 km/h (1 Bft) 97,87 %
29.11.2019 06:58 4,1 C 2,8 C 2,2 C 97 % 1006,5 hPa 0,0 l/m 0 min 0 min 0 W/m 0,0 km/h (0 Bft) 95,74 %
29.11.2019 07:00 4,1 C 2,8 C 2,2 C 97 % 1006,5 hPa 0,0 l/m 0 min 0 min 0 W/m 3,2 km/h (1 Bft) 97,62 %
29.11.2019 07:02 4,1 C 2,8 C 2,2 C 97 % 1006,6 hPa 0,0 l/m 0 min 0 min 0 W/m 0,0 km/h (0 Bft) 96,00 %
29.11.2019 07:04 4,0 C 2,8 C 2,2 C 97 % 1006,6 hPa 0,0 l/m 0 min 0 min 0 W/m 0,0 km/h (0 Bft) 97,92 %
29.11.2019 07:06 4,0 C 2,8 C 2,2 C 97 % 1006,7 hPa 0,0 l/m 0 min 0 min 0 W/m 0,0 km/h (0 Bft) 100,00 %
29.11.2019 07:08 3,9 C 2,8 C 2,2 C 97 % 1006,7 hPa 0,0 l/m 0 min 0 min 0 W/m 0,0 km/h (0 Bft) 97,62 %
29.11.2019 07:10 3,9 C 2,2 C 2,2 C 97 % 1006,7 hPa 0,0 l/m 0 min 0 min 0 W/m 0,0 km/h (0 Bft) 97,87 %
29.11.2019 07:12 3,9 C 2,2 C 2,2 C 97 % 1006,8 hPa 0,0 l/m 0 min 0 min 0 W/m 0,0 km/h (0 Bft) 96,00 %
29.11.2019 07:14 3,9 C 2,2 C 2,2 C 97 % 1006,8 hPa 0,0 l/m 0 min 0 min 0 W/m 0,0 km/h (0 Bft) 95,83 %
29.11.2019 07:16 3,9 C 2,2 C 2,2 C 97 % 1006,8 hPa 0,0 l/m 0 min 0 min 0 W/m 0,0 km/h (0 Bft) 97,87 %
29.11.2019 07:18 3,8 C 2,2 C 1,7 C 97 % 1006,8 hPa 0,0 l/m 0 min 0 min 0 W/m 0,0 km/h (0 Bft) 92,86 %
29.11.2019 07:20 3,8 C 2,2 C 1,7 C 97 % 1006,9 hPa 0,0 l/m 0 min 0 min 0 W/m 0,0 km/h (0 Bft) 96,00 %
29.11.2019 07:22 3,8 C 2,2 C 1,7 C 97 % 1006,9 hPa 0,0 l/m 0 min 0 min 0 W/m 0,0 km/h (0 Bft) 97,87 %
29.11.2019 07:24 3,8 C 2,2 C 1,7 C 97 % 1006,9 hPa 0,0 l/m 0 min 0 min 0 W/m 0,0 km/h (0 Bft) 95,83 %
29.11.2019 07:26 3,7 C 2,2 C 1,7 C 97 % 1007,0 hPa 0,0 l/m 0 min 0 min 0 W/m 0,0 km/h (0 Bft) 97,87 %
29.11.2019 07:28 3,7 C 2,2 C 1,7 C 97 % 1007,0 hPa 0,0 l/m 0 min 0 min 0 W/m 0,0 km/h (0 Bft) 97,87 %
29.11.2019 07:30 3,7 C 2,2 C 1,7 C 97 % 1007,1 hPa 0,0 l/m 0 min 0 min 0 W/m 0,0 km/h (0 Bft) 100,00 %
29.11.2019 07:32 3,7 C 2,2 C 1,7 C 97 % 1007,1 hPa 0,0 l/m 0 min 0 min 0 W/m 0,0 km/h (0 Bft) 97,87 %
29.11.2019 07:34 3,7 C 2,2 C 1,7 C 97 % 1007,2 hPa 0,0 l/m 0 min 0 min 0 W/m 3,2 km/h (1 Bft) 97,87 %
29.11.2019 07:36 3,6 C 2,2 C 1,7 C 97 % 1007,2 hPa 0,0 l/m 0 min 0 min 0 W/m 0,0 km/h (0 Bft) 100,00 %
29.11.2019 07:38 3,6 C 2,2 C 1,7 C 97 % 1007,3 hPa 0,0 l/m 0 min 0 min 0 W/m 0,0 km/h (0 Bft) 76,60 %
29.11.2019 07:40 3,6 C 2,2 C 1,7 C 97 % 1007,2 hPa 0,0 l/m 0 min 0 min 0 W/m 0,0 km/h (0 Bft) 65,52 %
29.11.2019 07:42 3,6 C 2,2 C 1,7 C 97 % 1007,2 hPa 0,0 l/m 0 min 0 min 0 W/m 0,0 km/h (0 Bft) 97,62 %
29.11.2019 07:44 3,5 C 2,2 C 1,7 C 97 % 1007,2 hPa 0,0 l/m 0 min 0 min 0 W/m 0,0 km/h (0 Bft) 98,00 %
29.11.2019 07:46 3,5 C 2,2 C 1,7 C 97 % 1007,3 hPa 0,0 l/m 0 min 0 min 0 W/m 3,2 km/h (1 Bft) 100,00 %
29.11.2019 07:48 3,5 C 2,2 C 1,7 C 97 % 1007,4 hPa 0,0 l/m 0 min 0 min 0 W/m 0,0 km/h (0 Bft) 100,00 %
29.11.2019 07:50 3,4 C 2,2 C 1,7 C 97 % 1007,4 hPa 0,0 l/m 0 min 0 min 0 W/m 0,0 km/h (0 Bft) 100,00 %
29.11.2019 07:52 3,4 C 2,2 C 1,7 C 97 % 1007,4 hPa 0,0 l/m 0 min 0 min 0 W/m 3,2 km/h (1 Bft) 100,00 %
29.11.2019 07:54 3,4 C 2,2 C 1,7 C 97 % 1007,5 hPa 0,0 l/m 0 min 0 min 0 W/m 3,2 km/h (1 Bft) 100,00 %
29.11.2019 07:56 3,4 C 2,2 C 1,7 C 97 % 1007,5 hPa 0,0 l/m 0 min 0 min 0 W/m 0,0 km/h (0 Bft) 100,00 %
29.11.2019 07:58 3,4 C 2,2 C 1,7 C 97 % 1007,6 hPa 0,0 l/m 0 min 0 min 0 W/m 3,2 km/h (1 Bft) 100,00 %
29.11.2019 08:00 3,4 C 2,2 C 1,7 C 97 % 1007,6 hPa 0,0 l/m 0 min 0 min 0 W/m 0,0 km/h (0 Bft) 100,00 %
29.11.2019 08:02 3,4 C 2,8 C 2,2 C 97 % 1007,7 hPa 0,0 l/m 0 min 0 min 0 W/m 0,0 km/h (0 Bft) 100,00 %
29.11.2019 08:04 3,4 C 2,8 C 2,2 C 97 % 1007,7 hPa 0,0 l/m 0 min 0 min 0 W/m 3,2 km/h (1 Bft) 100,00 %
29.11.2019 08:06 3,4 C 2,8 C 2,2 C 97 % 1007,8 hPa 0,0 l/m 0 min 0 min 0 W/m 0,0 km/h (0 Bft) 98,00 %
29.11.2019 08:08 3,4 C 2,8 C 2,2 C 97 % 1007,8 hPa 0,0 l/m 0 min 0 min 0 W/m 0,0 km/h (0 Bft) 95,74 %
29.11.2019 08:10 3,4 C 2,8 C 2,2 C 97 % 1007,8 hPa 0,0 l/m 0 min 0 min 0 W/m 0,0 km/h (0 Bft) 95,74 %
29.11.2019 08:12 3,4 C 2,8 C 2,2 C 97 % 1007,8 hPa 0,0 l/m 0 min 0 min 0 W/m 0,0 km/h (0 Bft) 95,74 %
29.11.2019 08:14 3,4 C 2,8 C 2,2 C 97 % 1007,9 hPa 0,0 l/m 0 min 0 min 0 W/m 0,0 km/h (0 Bft) 97,92 %
29.11.2019 08:16 3,4 C 2,8 C 2,2 C 97 % 1007,9 hPa 0,0 l/m 0 min 0 min 0 W/m 0,0 km/h (0 Bft) 95,74 %
29.11.2019 08:18 3,4 C 2,8 C 2,2 C 97 % 1007,9 hPa 0,0 l/m 0 min 0 min 0 W/m 3,2 km/h (1 Bft) 95,24 %
29.11.2019 08:20 3,4 C 2,8 C 2,2 C 97 % 1008,0 hPa 0,0 l/m 0 min 0 min 3 W/m 3,2 km/h (1 Bft) 95,74 %
29.11.2019 08:22 3,4 C 2,8 C 2,2 C 97 % 1008,0 hPa 0,0 l/m 0 min 0 min 5 W/m 0,0 km/h (0 Bft) 98,00 %
29.11.2019 08:24 3,4 C 2,8 C 2,2 C 97 % 1008,1 hPa 0,0 l/m 0 min 0 min 5 W/m 0,0 km/h (0 Bft) 93,75 %
29.11.2019 08:26 3,5 C 3,3 C 2,8 C 97 % 1008,1 hPa 0,0 l/m 0 min 0 min 5 W/m 3,2 km/h (1 Bft) 95,74 %
29.11.2019 08:28 3,5 C 3,3 C 2,8 C 97 % 1008,2 hPa 0,0 l/m 0 min 0 min 5 W/m 0,0 km/h (0 Bft) 93,62 %
29.11.2019 08:30 3,6 C 3,3 C 2,8 C 97 % 1008,2 hPa 0,0 l/m 0 min 0 min 7 W/m 0,0 km/h (0 Bft) 95,74 %
29.11.2019 08:32 3,6 C 3,3 C 2,8 C 97 % 1008,3 hPa 0,0 l/m 0 min 0 min 7 W/m 0,0 km/h (0 Bft) 95,24 %
29.11.2019 08:34 3,6 C 3,3 C 2,8 C 97 % 1008,3 hPa 0,0 l/m 0 min 0 min 8 W/m 0,0 km/h (0 Bft) 96,00 %
29.11.2019 08:36 3,6 C 3,3 C 2,8 C 97 % 1008,3 hPa 0,0 l/m 0 min 0 min 9 W/m 0,0 km/h (0 Bft) 95,74 %
29.11.2019 08:38 3,7 C 3,3 C 2,8 C 97 % 1008,4 hPa 0,0 l/m 0 min 0 min 11 W/m 0,0 km/h (0 Bft) 95,65 %
29.11.2019 08:40 3,7 C 3,3 C 2,8 C 97 % 1008,3 hPa 0,0 l/m 0 min 0 min 11 W/m 0,0 km/h (0 Bft) 93,62 %
29.11.2019 08:42 3,7 C 3,3 C 2,8 C 97 % 1008,4 hPa 0,0 l/m 0 min 0 min 12 W/m 3,2 km/h (1 Bft) 95,74 %
29.11.2019 08:44 3,8 C 3,3 C 2,8 C 97 % 1008,4 hPa 0,0 l/m 0 min 0 min 12 W/m 0,0 km/h (0 Bft) 95,83 %
29.11.2019 08:46 3,8 C 3,3 C 3,3 C 97 % 1008,5 hPa 0,0 l/m 0 min 0 min 12 W/m 0,0 km/h (0 Bft) 95,74 %
29.11.2019 08:48 3,8 C 3,3 C 2,8 C 97 % 1008,5 hPa 0,0 l/m 0 min 0 min 12 W/m 3,2 km/h (1 Bft) 95,74 %
29.11.2019 08:50 3,8 C 3,3 C 3,3 C 97 % 1008,6 hPa 0,0 l/m 0 min 0 min 12 W/m 0,0 km/h (0 Bft) 95,74 %
29.11.2019 08:52 3,9 C 3,3 C 3,3 C 97 % 1008,7 hPa 0,0 l/m 0 min 0 min 14 W/m 0,0 km/h (0 Bft) 97,62 %
29.11.2019 08:54 3,9 C 3,9 C 3,3 C 97 % 1008,6 hPa 0,0 l/m 0 min 0 min 14 W/m 3,2 km/h (1 Bft) 97,87 %
29.11.2019 08:56 4,0 C 3,9 C 3,3 C 97 % 1008,7 hPa 0,0 l/m 0 min 0 min 18 W/m 3,2 km/h (1 Bft) 96,00 %
29.11.2019 08:58 4,0 C 3,9 C 3,3 C 97 % 1008,8 hPa 0,0 l/m 0 min 0 min 20 W/m 3,2 km/h (1 Bft) 95,83 %
29.11.2019 09:00 4,1 C 3,9 C 3,3 C 97 % 1008,8 hPa 0,0 l/m 0 min 0 min 19 W/m 3,2 km/h (1 Bft) 97,87 %
29.11.2019 09:02 4,1 C 3,9 C 3,3 C 97 % 1008,8 hPa 0,0 l/m 0 min 0 min 19 W/m 3,2 km/h (1 Bft) 100,00 %
29.11.2019 09:04 4,1 C 3,9 C 3,3 C 97 % 1008,9 hPa 0,0 l/m 0 min 0 min 20 W/m 0,0 km/h (0 Bft) 100,00 %
29.11.2019 09:06 4,1 C 3,9 C 3,3 C 97 % 1008,9 hPa 0,0 l/m 0 min 0 min 23 W/m 0,0 km/h (0 Bft) 97,62 %
29.11.2019 09:08 4,1 C 3,9 C 3,3 C 97 % 1008,9 hPa 0,0 l/m 0 min 0 min 26 W/m 3,2 km/h (1 Bft) 100,00 %
29.11.2019 09:10 4,2 C 3,9 C 3,3 C 97 % 1008,9 hPa 0,0 l/m 0 min 0 min 28 W/m 3,2 km/h (1 Bft) 100,00 %
29.11.2019 09:12 4,2 C 3,9 C 3,3 C 97 % 1008,9 hPa 0,0 l/m 0 min 0 min 31 W/m 3,2 km/h (1 Bft) 100,00 %
29.11.2019 09:14 4,2 C 3,9 C 3,3 C 97 % 1009,0 hPa 0,0 l/m 0 min 0 min 32 W/m 0,0 km/h (0 Bft) 100,00 %
29.11.2019 09:16 4,2 C 3,9 C 3,3 C 97 % 1009,1 hPa 0,0 l/m 0 min 0 min 27 W/m 0,0 km/h (0 Bft) 100,00 %
29.11.2019 09:18 4,2 C 3,9 C 3,3 C 97 % 1009,1 hPa 0,0 l/m 0 min 0 min 24 W/m 6,4 km/h (2 Bft) 97,96 %
29.11.2019 09:20 4,3 C 3,9 C 3,3 C 97 % 1009,1 hPa 0,0 l/m 0 min 0 min 25 W/m 0,0 km/h (0 Bft) 100,00 %
29.11.2019 09:22 4,3 C 3,9 C 3,3 C 97 % 1009,2 hPa 0,0 l/m 0 min 0 min 27 W/m 0,0 km/h (0 Bft) 97,67 %
29.11.2019 09:24 4,3 C 3,9 C 3,3 C 97 % 1009,2 hPa 0,0 l/m 0 min 0 min 35 W/m 3,2 km/h (1 Bft) 100,00 %
29.11.2019 09:26 4,3 C 3,9 C 3,3 C 97 % 1009,2 hPa 0,0 l/m 0 min 0 min 42 W/m 3,2 km/h (1 Bft) 100,00 %
29.11.2019 09:28 4,3 C 3,9 C 3,3 C 97 % 1009,3 hPa 0,0 l/m 0 min 0 min 47 W/m 3,2 km/h (1 Bft) 100,00 %
29.11.2019 09:30 4,4 C 4,4 C 3,3 C 97 % 1009,3 hPa 0,0 l/m 0 min 0 min 53 W/m 3,2 km/h (1 Bft) 100,00 %
29.11.2019 09:32 4,4 C 4,4 C 3,9 C 97 % 1009,3 hPa 0,0 l/m 0 min 0 min 55 W/m 3,2 km/h (1 Bft) 100,00 %
29.11.2019 09:34 4,4 C 4,4 C 3,9 C 97 % 1009,4 hPa 0,0 l/m 0 min 0 min 51 W/m 3,2 km/h (1 Bft) 100,00 %
29.11.2019 09:36 4,5 C 4,4 C 3,9 C 97 % 1009,4 hPa 0,0 l/m 0 min 0 min 46 W/m 6,4 km/h (2 Bft) 100,00 %
29.11.2019 09:38 4,5 C 4,4 C 3,9 C 98 % 1009,4 hPa 0,0 l/m 0 min 0 min 40 W/m 3,2 km/h (1 Bft) 100,00 %
29.11.2019 09:40 4,6 C 3,9 C 3,3 C 98 % 1009,5 hPa 0,0 l/m 0 min 0 min 37 W/m 6,4 km/h (2 Bft) 100,00 %
29.11.2019 09:42 4,6 C 3,9 C 3,3 C 98 % 1009,5 hPa 0,0 l/m 0 min 0 min 36 W/m 3,2 km/h (1 Bft) 97,83 %
29.11.2019 09:44 4,6 C 3,9 C 3,3 C 98 % 1009,5 hPa 0,0 l/m 0 min 0 min 37 W/m 3,2 km/h (1 Bft) 100,00 %
29.11.2019 09:46 4,6 C 3,9 C 3,3 C 97 % 1009,6 hPa 0,0 l/m 0 min 0 min 35 W/m 3,2 km/h (1 Bft) 100,00 %
29.11.2019 09:48 4,6 C 3,9 C 3,3 C 97 % 1009,5 hPa 0,0 l/m 0 min 0 min 35 W/m 0,0 km/h (0 Bft) 100,00 %
29.11.2019 09:50 4,6 C 3,9 C 3,3 C 97 % 1009,6 hPa 0,0 l/m 0 min 0 min 40 W/m 3,2 km/h (1 Bft) 100,00 %
29.11.2019 09:52 4,6 C 4,4 C 3,3 C 97 % 1009,7 hPa 0,0 l/m 0 min 0 min 74 W/m 6,4 km/h (2 Bft) 100,00 %
29.11.2019 09:54 4,6 C 5,6 C 3,3 C 97 % 1009,7 hPa 0,0 l/m 0 min 0 min 88 W/m 3,2 km/h (1 Bft) 97,83 %
29.11.2019 09:56 4,6 C 6,1 C 3,3 C 97 % 1009,7 hPa 0,0 l/m 2 min 0 min 103 W/m 9,7 km/h (2 Bft) 97,87 %
29.11.2019 09:58 4,6 C 6,7 C 3,3 C 97 % 1009,8 hPa 0,0 l/m 2 min 0 min 100 W/m 3,2 km/h (1 Bft) 100,00 %
29.11.2019 10:00 4,6 C 6,7 C 3,3 C 97 % 1009,8 hPa 0,0 l/m 2 min 0 min 118 W/m 6,4 km/h (2 Bft) 100,00 %
29.11.2019 10:02 4,6 C 7,2 C 3,3 C 97 % 1009,8 hPa 0,0 l/m 2 min 0 min 99 W/m 6,4 km/h (2 Bft) 98,00 %
29.11.2019 10:04 4,7 C 7,8 C 3,3 C 97 % 1009,8 hPa 0,0 l/m 2 min 0 min 155 W/m 3,2 km/h (1 Bft) 97,96 %
29.11.2019 10:06 4,7 C 7,8 C 3,3 C 97 % 1009,9 hPa 0,0 l/m 2 min 0 min 175 W/m 9,7 km/h (2 Bft) 95,65 %
29.11.2019 10:08 4,7 C 7,8 C 3,3 C 97 % 1010,0 hPa 0,0 l/m 2 min 0 min 185 W/m 9,7 km/h (2 Bft) 97,87 %
29.11.2019 10:10 4,8 C 8,3 C 3,9 C 97 % 1010,0 hPa 0,0 l/m 2 min 0 min 189 W/m 3,2 km/h (1 Bft) 97,67 %
29.11.2019 10:12 4,8 C 8,3 C 3,9 C 97 % 1010,1 hPa 0,0 l/m 2 min 0 min 192 W/m 3,2 km/h (1 Bft) 97,96 %
29.11.2019 10:14 4,9 C 8,3 C 3,9 C 97 % 1010,0 hPa 0,0 l/m 2 min 0 min 194 W/m 6,4 km/h (2 Bft) 100,00 %
29.11.2019 10:16 4,9 C 8,9 C 3,9 C 97 % 1010,0 hPa 0,0 l/m 2 min 0 min 195 W/m 9,7 km/h (2 Bft) 93,62 %
29.11.2019 10:18 5,0 C 9,4 C 3,9 C 97 % 1010,1 hPa 0,0 l/m 2 min 0 min 187 W/m 3,2 km/h (1 Bft) 97,62 %
29.11.2019 10:20 5,1 C 9,4 C 3,9 C 97 % 1010,1 hPa 0,0 l/m 2 min 0 min 181 W/m 3,2 km/h (1 Bft) 98,00 %
29.11.2019 10:22 5,1 C 9,4 C 3,9 C 97 % 1010,2 hPa 0,0 l/m 2 min 0 min 175 W/m 3,2 km/h (1 Bft) 97,92 %
29.11.2019 10:24 5,2 C 8,9 C 3,9 C 97 % 1010,2 hPa 0,0 l/m 2 min 0 min 199 W/m 6,4 km/h (2 Bft) 97,87 %
29.11.2019 10:26 5,2 C 8,3 C 3,9 C 97 % 1010,3 hPa 0,0 l/m 2 min 0 min 207 W/m 6,4 km/h (2 Bft) 97,87 %
29.11.2019 10:28 5,3 C 8,9 C 3,9 C 97 % 1010,3 hPa 0,0 l/m 2 min 0 min 185 W/m 6,4 km/h (2 Bft) 95,65 %
29.11.2019 10:30 5,3 C 8,9 C 3,9 C 97 % 1010,3 hPa 0,0 l/m 2 min 0 min 183 W/m 6,4 km/h (2 Bft) 95,74 %
29.11.2019 10:32 5,4 C 8,9 C 3,9 C 97 % 1010,4 hPa 0,0 l/m 2 min 0 min 180 W/m 12,9 km/h (3 Bft) 95,74 %
29.11.2019 10:34 5,4 C 8,3 C 3,9 C 97 % 1010,4 hPa 0,0 l/m 2 min 0 min 158 W/m 9,7 km/h (2 Bft) 97,62 %
29.11.2019 10:36 5,5 C 9,4 C 3,9 C 97 % 1010,4 hPa 0,0 l/m 2 min 0 min 150 W/m 9,7 km/h (2 Bft) 98,00 %
29.11.2019 10:38 5,6 C 10,0 C 3,9 C 97 % 1010,5 hPa 0,0 l/m 2 min 0 min 132 W/m 6,4 km/h (2 Bft) 95,74 %
29.11.2019 10:40 5,6 C 10,0 C 3,9 C 96 % 1010,6 hPa 0,0 l/m 2 min 0 min 212 W/m 9,7 km/h (2 Bft) 97,92 %
29.11.2019 10:42 5,7 C 9,4 C 3,9 C 96 % 1010,6 hPa 0,0 l/m 2 min 0 min 199 W/m 6,4 km/h (2 Bft) 95,74 %
29.11.2019 10:44 5,7 C 9,4 C 4,4 C 96 % 1010,6 hPa 0,0 l/m 2 min 0 min 160 W/m 9,7 km/h (2 Bft) 97,87 %
29.11.2019 10:46 5,8 C 8,3 C 4,4 C 96 % 1010,7 hPa 0,0 l/m 2 min 0 min 189 W/m 6,4 km/h (2 Bft) 97,87 %
29.11.2019 10:48 5,8 C 8,3 C 4,4 C 96 % 1010,7 hPa 0,0 l/m 2 min 0 min 204 W/m 6,4 km/h (2 Bft) 97,87 %
29.11.2019 10:50 5,9 C 8,9 C 4,4 C 96 % 1010,8 hPa 0,0 l/m 2 min 0 min 180 W/m 3,2 km/h (1 Bft) 97,87 %
29.11.2019 10:52 6,0 C 8,9 C 4,4 C 96 % 1010,9 hPa 0,0 l/m 2 min 0 min 153 W/m 9,7 km/h (2 Bft) 97,62 %
29.11.2019 10:54 6,1 C 8,9 C 4,4 C 95 % 1010,9 hPa 0,0 l/m 2 min 0 min 180 W/m 3,2 km/h (1 Bft) 98,00 %
29.11.2019 10:56 6,1 C 8,9 C 4,4 C 95 % 1010,9 hPa 0,0 l/m 2 min 0 min 170 W/m 6,4 km/h (2 Bft) 93,62 %
29.11.2019 10:58 6,2 C 9,4 C 4,4 C 95 % 1010,9 hPa 0,0 l/m 2 min 0 min 198 W/m 6,4 km/h (2 Bft) 97,83 %
29.11.2019 11:00 6,2 C 10,0 C 4,4 C 95 % 1010,9 hPa 0,0 l/m 2 min 0 min 164 W/m 3,2 km/h (1 Bft) 97,96 %
29.11.2019 11:02 6,3 C 10,6 C 5,0 C 95 % 1011,0 hPa 0,0 l/m 2 min 0 min 214 W/m 9,7 km/h (2 Bft) 97,87 %
29.11.2019 11:04 6,4 C 11,1 C 5,0 C 95 % 1011,0 hPa 0,0 l/m 2 min 0 min 252 W/m 6,4 km/h (2 Bft) 100,00 %
29.11.2019 11:06 6,5 C 11,7 C 5,0 C 94 % 1011,0 hPa 0,0 l/m 2 min 0 min 272 W/m 9,7 km/h (2 Bft) 100,00 %
29.11.2019 11:08 6,5 C 11,7 C 5,0 C 94 % 1011,0 hPa 0,0 l/m 2 min 0 min 274 W/m 3,2 km/h (1 Bft) 100,00 %
29.11.2019 11:10 6,6 C 10,6 C 5,0 C 94 % 1011,1 hPa 0,0 l/m 2 min 0 min 229 W/m 9,7 km/h (2 Bft) 100,00 %
29.11.2019 11:12 6,7 C 10,0 C 5,0 C 94 % 1011,1 hPa 0,0 l/m 2 min 0 min 189 W/m 3,2 km/h (1 Bft) 97,96 %
29.11.2019 11:14 6,7 C 10,6 C 5,0 C 93 % 1011,1 hPa 0,0 l/m 2 min 0 min 243 W/m 6,4 km/h (2 Bft) 100,00 %
29.11.2019 11:16 6,8 C 11,7 C 5,0 C 93 % 1011,2 hPa 0,0 l/m 2 min 0 min 263 W/m 9,7 km/h (2 Bft) 100,00 %
29.11.2019 11:18 6,9 C 12,2 C 5,0 C 93 % 1011,2 hPa 0,0 l/m 2 min 0 min 270 W/m 3,2 km/h (1 Bft) 100,00 %
29.11.2019 11:20 7,0 C 12,2 C 5,0 C 92 % 1011,2 hPa 0,0 l/m 2 min 0 min 274 W/m 9,7 km/h (2 Bft) 100,00 %
29.11.2019 11:22 7,1 C 12,2 C 5,0 C 92 % 1011,2 hPa 0,0 l/m 2 min 0 min 275 W/m 6,4 km/h (2 Bft) 100,00 %
29.11.2019 11:24 7,1 C 12,2 C 5,0 C 92 % 1011,2 hPa 0,0 l/m 2 min 0 min 273 W/m 9,7 km/h (2 Bft) 100,00 %
29.11.2019 11:26 7,2 C 12,2 C 5,0 C 91 % 1011,3 hPa 0,0 l/m 2 min 0 min 276 W/m 6,4 km/h (2 Bft) 100,00 %
29.11.2019 11:28 7,3 C 11,7 C 5,0 C 91 % 1011,3 hPa 0,0 l/m 2 min 0 min 279 W/m 9,7 km/h (2 Bft) 100,00 %
29.11.2019 11:30 7,3 C 12,2 C 5,0 C 91 % 1011,3 hPa 0,0 l/m 2 min 0 min 282 W/m 12,9 km/h (3 Bft) 100,00 %
29.11.2019 11:32 7,4 C 12,8 C 5,0 C 90 % 1011,4 hPa 0,0 l/m 2 min 0 min 286 W/m 12,9 km/h (3 Bft) 100,00 %
29.11.2019 11:34 7,5 C 12,2 C 5,6 C 90 % 1011,4 hPa 0,0 l/m 2 min 0 min 287 W/m 16,1 km/h (3 Bft) 97,87 %
29.11.2019 11:36 7,6 C 12,2 C 5,6 C 89 % 1011,4 hPa 0,0 l/m 2 min 0 min 287 W/m 16,1 km/h (3 Bft) 100,00 %
29.11.2019 11:38 7,6 C 12,2 C 5,6 C 89 % 1011,4 hPa 0,0 l/m 2 min 0 min 288 W/m 9,7 km/h (2 Bft) 100,00 %
29.11.2019 11:40 7,7 C 12,8 C 5,6 C 89 % 1011,4 hPa 0,0 l/m 2 min 0 min 291 W/m 9,7 km/h (2 Bft) 100,00 %
29.11.2019 11:42 7,7 C 12,8 C 5,6 C 88 % 1011,5 hPa 0,0 l/m 2 min 0 min 288 W/m 9,7 km/h (2 Bft) 100,00 %
29.11.2019 11:44 7,8 C 12,8 C 5,6 C 88 % 1011,5 hPa 0,0 l/m 2 min 0 min 297 W/m 9,7 km/h (2 Bft) 95,74 %
29.11.2019 11:46 7,8 C 12,8 C 5,6 C 88 % 1011,5 hPa 0,0 l/m 2 min 0 min 294 W/m 9,7 km/h (2 Bft) 97,87 %
29.11.2019 11:48 7,9 C 13,3 C 5,6 C 88 % 1011,5 hPa 0,0 l/m 2 min 0 min 295 W/m 9,7 km/h (2 Bft) 97,87 %
29.11.2019 11:50 7,9 C 12,8 C 6,1 C 87 % 1011,6 hPa 0,0 l/m 2 min 0 min 297 W/m 12,9 km/h (3 Bft) 97,83 %
29.11.2019 11:52 7,9 C 11,7 C 6,1 C 87 % 1011,6 hPa 0,0 l/m 2 min 0 min 295 W/m 9,7 km/h (2 Bft) 95,35 %
29.11.2019 11:54 8,0 C 11,7 C 6,1 C 87 % 1011,6 hPa 0,0 l/m 2 min 0 min 294 W/m 12,9 km/h (3 Bft) 97,87 %
29.11.2019 11:56 8,0 C 11,7 C 6,1 C 86 % 1011,6 hPa 0,0 l/m 2 min 0 min 296 W/m 9,7 km/h (2 Bft) 97,83 %
29.11.2019 11:58 8,1 C 12,2 C 6,1 C 86 % 1011,6 hPa 0,0 l/m 2 min 0 min 298 W/m 9,7 km/h (2 Bft) 98,00 %
29.11.2019 12:00 8,1 C 12,8 C 6,1 C 86 % 1011,6 hPa 0,0 l/m 2 min 0 min 297 W/m 6,4 km/h (2 Bft) 97,96 %
29.11.2019 12:02 8,1 C 13,3 C 6,1 C 86 % 1011,7 hPa 0,0 l/m 2 min 0 min 297 W/m 12,9 km/h (3 Bft) 97,83 %
29.11.2019 12:04 8,2 C 12,8 C 6,1 C 85 % 1011,8 hPa 0,0 l/m 2 min 0 min 300 W/m 3,2 km/h (1 Bft) 95,35 %
29.11.2019 12:06 8,2 C 13,3 C 6,1 C 85 % 1011,7 hPa 0,0 l/m 2 min 0 min 302 W/m 6,4 km/h (2 Bft) 97,96 %
29.11.2019 12:08 8,3 C 13,3 C 6,7 C 85 % 1011,8 hPa 0,0 l/m 2 min 0 min 301 W/m 12,9 km/h (3 Bft) 100,00 %
29.11.2019 12:10 8,3 C 12,8 C 6,7 C 85 % 1011,7 hPa 0,0 l/m 2 min 0 min 301 W/m 22,5 km/h (4 Bft) 97,87 %
29.11.2019 12:12 8,3 C 12,8 C 6,7 C 85 % 1011,8 hPa 0,0 l/m 2 min 0 min 302 W/m 6,4 km/h (2 Bft) 100,00 %
29.11.2019 12:14 8,4 C 13,3 C 7,8 C 85 % 1011,8 hPa 0,0 l/m 2 min 0 min 304 W/m 3,2 km/h (1 Bft) 98,00 %
29.11.2019 12:16 8,5 C 13,9 C 9,4 C 85 % 1011,8 hPa 0,0 l/m 2 min 0 min 304 W/m 12,9 km/h (3 Bft) 97,92 %
29.11.2019 12:18 8,6 C 13,9 C 10,0 C 84 % 1011,8 hPa 0,0 l/m 2 min 0 min 303 W/m 6,4 km/h (2 Bft) 95,74 %
29.11.2019 12:20 8,6 C 13,9 C 9,4 C 84 % 1011,9 hPa 0,0 l/m 2 min 0 min 304 W/m 6,4 km/h (2 Bft) 97,87 %
29.11.2019 12:22 8,7 C 14,4 C 8,3 C 84 % 1011,9 hPa 0,0 l/m 2 min 0 min 302 W/m 6,4 km/h (2 Bft) 97,87 %
29.11.2019 12:24 8,7 C 14,4 C 7,8 C 84 % 1011,9 hPa 0,0 l/m 2 min 0 min 302 W/m 6,4 km/h (2 Bft) 97,62 %
29.11.2019 12:26 8,8 C 13,9 C 7,2 C 84 % 1012,0 hPa 0,0 l/m 2 min 0 min 302 W/m 9,7 km/h (2 Bft) 96,00 %
29.11.2019 12:28 8,8 C 14,4 C 7,2 C 83 % 1011,9 hPa 0,0 l/m 2 min 0 min 302 W/m 12,9 km/h (3 Bft) 97,87 %
29.11.2019 12:30 8,9 C 14,4 C 6,7 C 83 % 1012,0 hPa 0,0 l/m 2 min 0 min 302 W/m 9,7 km/h (2 Bft) 97,83 %
29.11.2019 12:32 8,9 C 14,4 C 6,7 C 83 % 1012,0 hPa 0,0 l/m 2 min 0 min 304 W/m 12,9 km/h (3 Bft) 95,74 %
29.11.2019 12:34 8,9 C 14,4 C 6,7 C 82 % 1012,0 hPa 0,0 l/m 2 min 0 min 304 W/m 12,9 km/h (3 Bft) 97,96 %
29.11.2019 12:36 9,0 C 14,4 C 6,7 C 82 % 1012,0 hPa 0,0 l/m 2 min 0 min 304 W/m 16,1 km/h (3 Bft) 95,74 %
29.11.2019 12:38 9,1 C 13,9 C 6,7 C 82 % 1012,0 hPa 0,0 l/m 2 min 0 min 301 W/m 3,2 km/h (1 Bft) 92,86 %
29.11.2019 12:40 9,1 C 13,9 C 6,7 C 82 % 1012,1 hPa 0,0 l/m 2 min 0 min 301 W/m 6,4 km/h (2 Bft) 96,00 %
29.11.2019 12:42 9,1 C 14,4 C 6,7 C 82 % 1012,1 hPa 0,0 l/m 2 min 0 min 302 W/m 6,4 km/h (2 Bft) 95,65 %
29.11.2019 12:44 9,2 C 13,9 C 6,7 C 82 % 1012,1 hPa 0,0 l/m 2 min 0 min 302 W/m 16,1 km/h (3 Bft) 97,96 %
29.11.2019 12:46 9,2 C 13,3 C 6,7 C 80 % 1012,1 hPa 0,0 l/m 2 min 0 min 301 W/m 9,7 km/h (2 Bft) 97,87 %
29.11.2019 12:48 9,2 C 13,3 C 6,7 C 80 % 1012,1 hPa 0,0 l/m 2 min 0 min 304 W/m 19,3 km/h (3 Bft) 95,65 %
29.11.2019 12:50 9,2 C 13,3 C 6,7 C 79 % 1012,1 hPa 0,0 l/m 2 min 0 min 309 W/m 16,1 km/h (3 Bft) 97,87 %
29.11.2019 12:52 9,1 C 13,3 C 7,2 C 78 % 1012,1 hPa 0,0 l/m 2 min 0 min 314 W/m 19,3 km/h (3 Bft) 100,00 %
29.11.2019 12:54 9,1 C 13,3 C 7,2 C 78 % 1012,2 hPa 0,0 l/m 2 min 0 min 316 W/m 22,5 km/h (4 Bft) 95,24 %
29.11.2019 12:56 9,1 C 13,3 C 7,2 C 78 % 1012,2 hPa 0,0 l/m 2 min 0 min 311 W/m 16,1 km/h (3 Bft) 97,87 %
29.11.2019 12:58 9,2 C 13,3 C 7,2 C 78 % 1012,2 hPa 0,0 l/m 2 min 0 min 312 W/m 12,9 km/h (3 Bft) 98,00 %
29.11.2019 13:00 9,2 C 13,9 C 7,2 C 78 % 1012,2 hPa 0,0 l/m 2 min 0 min 312 W/m 9,7 km/h (2 Bft) 100,00 %
29.11.2019 13:02 9,2 C 14,4 C 7,2 C 78 % 1012,2 hPa 0,0 l/m 2 min 0 min 309 W/m 6,4 km/h (2 Bft) 100,00 %
29.11.2019 13:04 9,3 C 13,9 C 7,2 C 78 % 1012,2 hPa 0,0 l/m 2 min 0 min 308 W/m 12,9 km/h (3 Bft) 97,67 %
29.11.2019 13:06 9,3 C 13,9 C 7,2 C 78 % 1012,2 hPa 0,0 l/m 2 min 0 min 310 W/m 12,9 km/h (3 Bft) 97,96 %
29.11.2019 13:08 9,3 C 14,4 C 7,2 C 78 % 1012,3 hPa 0,0 l/m 2 min 0 min 312 W/m 12,9 km/h (3 Bft) 97,96 %
29.11.2019 13:10 9,4 C 14,4 C 7,8 C 78 % 1012,3 hPa 0,0 l/m 2 min 0 min 317 W/m 12,9 km/h (3 Bft) 97,87 %
29.11.2019 13:12 9,4 C 14,4 C 7,8 C 78 % 1012,3 hPa 0,0 l/m 2 min 0 min 320 W/m 12,9 km/h (3 Bft) 100,00 %
29.11.2019 13:14 9,4 C 13,9 C 7,2 C 78 % 1012,4 hPa 0,0 l/m 2 min 0 min 315 W/m 16,1 km/h (3 Bft) 96,00 %
29.11.2019 13:16 9,4 C 14,4 C 7,2 C 78 % 1012,4 hPa 0,0 l/m 2 min 0 min 303 W/m 12,9 km/h (3 Bft) 97,83 %
29.11.2019 13:18 9,4 C 13,3 C 7,2 C 77 % 1012,5 hPa 0,0 l/m 2 min 0 min 296 W/m 12,9 km/h (3 Bft) 100,00 %
29.11.2019 13:20 9,4 C 12,8 C 7,2 C 77 % 1012,5 hPa 0,0 l/m 2 min 0 min 293 W/m 16,1 km/h (3 Bft) 95,92 %
29.11.2019 13:22 9,4 C 12,8 C 7,2 C 77 % 1012,5 hPa 0,0 l/m 2 min 0 min 291 W/m 9,7 km/h (2 Bft) 95,74 %
29.11.2019 13:24 9,4 C 12,8 C 7,2 C 76 % 1012,5 hPa 0,0 l/m 2 min 0 min 289 W/m 16,1 km/h (3 Bft) 95,65 %
29.11.2019 13:26 9,4 C 13,3 C 7,2 C 77 % 1012,5 hPa 0,0 l/m 2 min 0 min 283 W/m 16,1 km/h (3 Bft) 95,35 %
29.11.2019 13:28 9,4 C 12,8 C 7,2 C 77 % 1012,6 hPa 0,0 l/m 2 min 0 min 282 W/m 16,1 km/h (3 Bft) 97,96 %
29.11.2019 13:30 9,4 C 12,8 C 7,2 C 76 % 1012,6 hPa 0,0 l/m 2 min 0 min 281 W/m 12,9 km/h (3 Bft) 97,96 %
29.11.2019 13:32 9,3 C 12,8 C 7,2 C 76 % 1012,5 hPa 0,0 l/m 2 min 0 min 285 W/m 12,9 km/h (3 Bft) 95,74 %
29.11.2019 13:34 9,3 C 12,8 C 7,2 C 76 % 1012,6 hPa 0,0 l/m 2 min 0 min 293 W/m 12,9 km/h (3 Bft) 93,48 %
29.11.2019 13:36 9,3 C 12,2 C 7,2 C 77 % 1012,6 hPa 0,0 l/m 2 min 0 min 265 W/m 6,4 km/h (2 Bft) 95,74 %
29.11.2019 13:38 9,3 C 12,8 C 7,2 C 77 % 1012,6 hPa 0,0 l/m 2 min 0 min 288 W/m 16,1 km/h (3 Bft) 97,87 %
29.11.2019 13:40 9,3 C 11,7 C 7,8 C 77 % 1012,6 hPa 0,0 l/m 2 min 0 min 208 W/m 16,1 km/h (3 Bft) 97,87 %
29.11.2019 13:42 9,3 C 11,7 C 7,8 C 77 % 1012,6 hPa 0,0 l/m 2 min 0 min 183 W/m 9,7 km/h (2 Bft) 95,74 %
29.11.2019 13:44 9,3 C 11,1 C 7,8 C 77 % 1012,7 hPa 0,0 l/m 2 min 0 min 277 W/m 9,7 km/h (2 Bft) 88,10 %
29.11.2019 13:46 9,2 C 10,6 C 7,8 C 77 % 1012,7 hPa 0,0 l/m 2 min 0 min 263 W/m 6,4 km/h (2 Bft) 92,00 %
29.11.2019 13:48 9,2 C 12,2 C 7,8 C 77 % 1012,7 hPa 0,0 l/m 2 min 0 min 229 W/m 9,7 km/h (2 Bft) 95,74 %
29.11.2019 13:50 9,3 C 12,8 C 8,3 C 78 % 1012,7 hPa 0,0 l/m 2 min 0 min 328 W/m 9,7 km/h (2 Bft) 95,74 %
29.11.2019 13:52 9,3 C 12,2 C 8,3 C 78 % 1012,6 hPa 0,0 l/m 2 min 0 min 337 W/m 9,7 km/h (2 Bft) 97,83 %
29.11.2019 13:54 9,3 C 11,1 C 8,3 C 77 % 1012,6 hPa 0,0 l/m 2 min 0 min 191 W/m 19,3 km/h (3 Bft) 97,87 %
29.11.2019 13:56 9,3 C 10,6 C 7,8 C 77 % 1012,7 hPa 0,0 l/m 2 min 0 min 230 W/m 22,5 km/h (4 Bft) 95,74 %
29.11.2019 13:58 9,2 C 10,0 C 7,8 C 77 % 1012,7 hPa 0,0 l/m 2 min 0 min 170 W/m 19,3 km/h (3 Bft) 95,74 %
29.11.2019 14:00 9,2 C 9,4 C 7,8 C 77 % 1012,7 hPa 0,0 l/m 2 min 0 min 153 W/m 19,3 km/h (3 Bft) 97,92 %
29.11.2019 14:02 9,2 C 9,4 C 7,8 C 77 % 1012,7 hPa 0,0 l/m 2 min 0 min 156 W/m 12,9 km/h (3 Bft) 97,87 %
29.11.2019 14:04 9,1 C 9,4 C 7,8 C 77 % 1012,8 hPa 0,0 l/m 2 min 0 min 162 W/m 12,9 km/h (3 Bft) 97,62 %
29.11.2019 14:06 9,1 C 9,4 C 7,8 C 77 % 1012,8 hPa 0,0 l/m 2 min 0 min 180 W/m 16,1 km/h (3 Bft) 98,00 %
29.11.2019 14:08 9,1 C 9,4 C 7,8 C 78 % 1012,9 hPa 0,0 l/m 2 min 0 min 167 W/m 19,3 km/h (3 Bft) 97,96 %
29.11.2019 14:10 9,0 C 9,4 C 7,8 C 78 % 1012,9 hPa 0,0 l/m 2 min 0 min 164 W/m 12,9 km/h (3 Bft) 97,83 %
29.11.2019 14:12 8,9 C 10,0 C 7,8 C 78 % 1012,9 hPa 0,0 l/m 2 min 0 min 172 W/m 9,7 km/h (2 Bft) 97,67 %
29.11.2019 14:14 8,9 C 10,0 C 7,8 C 78 % 1012,9 hPa 0,0 l/m 2 min 0 min 170 W/m 9,7 km/h (2 Bft) 96,00 %
29.11.2019 14:16 8,9 C 10,0 C 7,8 C 78 % 1012,9 hPa 0,0 l/m 2 min 0 min 165 W/m 9,7 km/h (2 Bft) 95,65 %
29.11.2019 14:18 8,9 C 10,0 C 7,8 C 79 % 1012,9 hPa 0,0 l/m 2 min 0 min 170 W/m 9,7 km/h (2 Bft) 93,88 %
29.11.2019 14:20 8,9 C 9,4 C 7,8 C 79 % 1013,0 hPa 0,0 l/m 2 min 0 min 134 W/m 9,7 km/h (2 Bft) 95,74 %
29.11.2019 14:22 8,9 C 9,4 C 7,8 C 79 % 1013,0 hPa 0,0 l/m 2 min 0 min 146 W/m 16,1 km/h (3 Bft) 95,65 %
29.11.2019 14:24 8,8 C 9,4 C 7,2 C 79 % 1013,1 hPa 0,0 l/m 0 min 0 min 109 W/m 12,9 km/h (3 Bft) 95,74 %
29.11.2019 14:26 8,8 C 8,9 C 7,2 C 79 % 1013,1 hPa 0,0 l/m 0 min 0 min 101 W/m 9,7 km/h (2 Bft) 95,35 %
29.11.2019 14:28 8,8 C 8,3 C 7,2 C 79 % 1013,1 hPa 0,0 l/m 0 min 0 min 98 W/m 16,1 km/h (3 Bft) 93,88 %
29.11.2019 14:30 8,7 C 8,3 C 7,2 C 79 % 1013,2 hPa 0,0 l/m 0 min 0 min 93 W/m 6,4 km/h (2 Bft) 95,92 %
29.11.2019 14:32 8,7 C 8,3 C 7,2 C 78 % 1013,2 hPa 0,0 l/m 0 min 0 min 91 W/m 9,7 km/h (2 Bft) 95,74 %
29.11.2019 14:34 8,7 C 8,3 C 7,2 C 78 % 1013,2 hPa 0,0 l/m 0 min 0 min 90 W/m 6,4 km/h (2 Bft) 54,35 %
29.11.2019 14:36 8,6 C 8,3 C 7,2 C 79 % 1013,3 hPa 0,0 l/m 0 min 0 min 91 W/m 6,4 km/h (2 Bft) 95,74 %
29.11.2019 14:38 8,6 C 8,3 C 7,2 C 79 % 1013,3 hPa 0,0 l/m 0 min 0 min 91 W/m 9,7 km/h (2 Bft) 95,74 %
29.11.2019 14:40 8,6 C 7,8 C 7,2 C 80 % 1013,4 hPa 0,0 l/m 0 min 0 min 90 W/m 6,4 km/h (2 Bft) 95,74 %
29.11.2019 14:42 8,5 C 7,8 C 7,2 C 79 % 1013,4 hPa 0,0 l/m 0 min 0 min 90 W/m 6,4 km/h (2 Bft) 95,74 %
29.11.2019 14:44 8,5 C 7,8 C 7,2 C 80 % 1013,4 hPa 0,0 l/m 0 min 0 min 86 W/m 9,7 km/h (2 Bft) 95,24 %
29.11.2019 14:46 8,4 C 7,8 C 7,2 C 80 % 1013,5 hPa 0,0 l/m 0 min 0 min 83 W/m 9,7 km/h (2 Bft) 93,62 %
29.11.2019 14:48 8,4 C 7,8 C 6,7 C 80 % 1013,5 hPa 0,0 l/m 0 min 0 min 84 W/m 12,9 km/h (3 Bft) 94,00 %
29.11.2019 14:50 8,3 C 7,8 C 7,2 C 80 % 1013,5 hPa 0,0 l/m 2 min 0 min 91 W/m 6,4 km/h (2 Bft) 95,83 %
29.11.2019 14:52 8,3 C 7,8 C 7,2 C 80 % 1013,5 hPa 0,0 l/m 2 min 0 min 95 W/m 16,1 km/h (3 Bft) 93,62 %
29.11.2019 14:54 8,3 C 7,8 C 6,7 C 80 % 1013,6 hPa 0,0 l/m 2 min 0 min 93 W/m 9,7 km/h (2 Bft) 95,24 %
29.11.2019 14:56 8,2 C 7,8 C 6,7 C 80 % 1013,6 hPa 0,0 l/m 2 min 0 min 95 W/m 12,9 km/h (3 Bft) 95,74 %
29.11.2019 14:58 8,2 C 7,8 C 6,7 C 80 % 1013,7 hPa 0,0 l/m 2 min 0 min 92 W/m 6,4 km/h (2 Bft) 97,87 %
29.11.2019 15:00 8,2 C 8,3 C 6,7 C 81 % 1013,7 hPa 0,0 l/m 2 min 0 min 87 W/m 6,4 km/h (2 Bft) 98,00 %
29.11.2019 15:02 8,2 C 7,8 C 6,7 C 81 % 1013,7 hPa 0,0 l/m 0 min 0 min 81 W/m 9,7 km/h (2 Bft) 97,83 %
29.11.2019 15:04 8,2 C 7,8 C 6,7 C 81 % 1013,7 hPa 0,0 l/m 0 min 0 min 77 W/m 9,7 km/h (2 Bft) 97,87 %
29.11.2019 15:06 8,2 C 7,8 C 6,7 C 81 % 1013,7 hPa 0,0 l/m 0 min 0 min 72 W/m 9,7 km/h (2 Bft) 100,00 %
29.11.2019 15:08 8,1 C 7,8 C 6,7 C 81 % 1013,8 hPa 0,0 l/m 0 min 0 min 65 W/m 12,9 km/h (3 Bft) 100,00 %
29.11.2019 15:10 8,1 C 7,8 C 6,7 C 81 % 1013,9 hPa 0,0 l/m 0 min 0 min 62 W/m 9,7 km/h (2 Bft) 100,00 %
29.11.2019 15:12 8,1 C 7,8 C 6,7 C 81 % 1013,9 hPa 0,0 l/m 0 min 0 min 58 W/m 9,7 km/h (2 Bft) 100,00 %
29.11.2019 15:14 8,1 C 7,8 C 6,7 C 81 % 1013,9 hPa 0,0 l/m 0 min 0 min 55 W/m 12,9 km/h (3 Bft) 100,00 %
29.11.2019 15:16 8,1 C 7,8 C 6,7 C 81 % 1013,9 hPa 0,0 l/m 0 min 0 min 55 W/m 12,9 km/h (3 Bft) 100,00 %
29.11.2019 15:18 8,0 C 7,2 C 6,7 C 81 % 1014,0 hPa 0,0 l/m 0 min 0 min 58 W/m 9,7 km/h (2 Bft) 100,00 %
29.11.2019 15:20 8,0 C 7,2 C 6,7 C 81 % 1014,0 hPa 0,0 l/m 0 min 0 min 62 W/m 9,7 km/h (2 Bft) 100,00 %
29.11.2019 15:22 7,9 C 7,2 C 6,7 C 81 % 1014,0 hPa 0,0 l/m 0 min 0 min 62 W/m 9,7 km/h (2 Bft) 100,00 %
29.11.2019 15:24 7,9 C 7,2 C 6,7 C 81 % 1014,0 hPa 0,0 l/m 0 min 0 min 61 W/m 6,4 km/h (2 Bft) 100,00 %
29.11.2019 15:26 7,9 C 7,2 C 6,7 C 81 % 1014,0 hPa 0,0 l/m 0 min 0 min 57 W/m 3,2 km/h (1 Bft) 100,00 %
29.11.2019 15:28 7,9 C 7,2 C 6,7 C 81 % 1014,1 hPa 0,0 l/m 0 min 0 min 53 W/m 6,4 km/h (2 Bft) 100,00 %
29.11.2019 15:30 7,9 C 7,2 C 6,7 C 81 % 1014,1 hPa 0,0 l/m 0 min 0 min 48 W/m 9,7 km/h (2 Bft) 100,00 %
29.11.2019 15:32 7,8 C 7,2 C 6,7 C 82 % 1014,1 hPa 0,0 l/m 0 min 0 min 47 W/m 3,2 km/h (1 Bft) 97,62 %
29.11.2019 15:34 7,8 C 7,2 C 6,7 C 82 % 1014,1 hPa 0,0 l/m 0 min 0 min 46 W/m 6,4 km/h (2 Bft) 100,00 %
29.11.2019 15:36 7,8 C 7,2 C 6,7 C 82 % 1014,1 hPa 0,0 l/m 0 min 0 min 42 W/m 9,7 km/h (2 Bft) 100,00 %
29.11.2019 15:38 7,8 C 7,2 C 6,1 C 82 % 1014,1 hPa 0,0 l/m 0 min 0 min 38 W/m 6,4 km/h (2 Bft) 100,00 %
29.11.2019 15:40 7,8 C 7,2 C 6,1 C 82 % 1014,1 hPa 0,0 l/m 0 min 0 min 35 W/m 3,2 km/h (1 Bft) 100,00 %
29.11.2019 15:42 7,8 C 7,2 C 6,1 C 83 % 1014,2 hPa 0,0 l/m 0 min 0 min 33 W/m 9,7 km/h (2 Bft) 100,00 %
29.11.2019 15:44 7,8 C 6,7 C 6,1 C 83 % 1014,2 hPa 0,0 l/m 0 min 0 min 30 W/m 6,4 km/h (2 Bft) 100,00 %
29.11.2019 15:46 7,7 C 6,7 C 6,1 C 83 % 1014,3 hPa 0,0 l/m 0 min 0 min 29 W/m 3,2 km/h (1 Bft) 100,00 %
29.11.2019 15:48 7,7 C 6,7 C 6,1 C 83 % 1014,3 hPa 0,0 l/m 0 min 0 min 30 W/m 3,2 km/h (1 Bft) 95,74 %
29.11.2019 15:50 7,7 C 6,7 C 6,1 C 83 % 1014,3 hPa 0,0 l/m 0 min 0 min 31 W/m 3,2 km/h (1 Bft) 97,87 %
29.11.2019 15:52 7,7 C 6,7 C 6,1 C 83 % 1014,4 hPa 0,0 l/m 0 min 0 min 31 W/m 0,0 km/h (0 Bft) 97,87 %
29.11.2019 15:54 7,6 C 6,7 C 6,1 C 83 % 1014,4 hPa 0,0 l/m 0 min 0 min 27 W/m 0,0 km/h (0 Bft) 97,83 %
29.11.2019 15:56 7,6 C 6,7 C 6,1 C 83 % 1014,3 hPa 0,0 l/m 0 min 0 min 24 W/m 6,4 km/h (2 Bft) 97,87 %
29.11.2019 15:58 7,6 C 6,7 C 6,1 C 83 % 1014,4 hPa 0,0 l/m 0 min 0 min 21 W/m 3,2 km/h (1 Bft) 97,67 %
29.11.2019 16:00 7,6 C 6,7 C 5,6 C 83 % 1014,4 hPa 0,0 l/m 0 min 0 min 19 W/m 3,2 km/h (1 Bft) 97,96 %
29.11.2019 16:02 7,5 C 6,7 C 5,6 C 83 % 1014,4 hPa 0,0 l/m 0 min 0 min 18 W/m 3,2 km/h (1 Bft) 95,92 %
29.11.2019 16:04 7,5 C 6,1 C 5,6 C 83 % 1014,5 hPa 0,0 l/m 0 min 0 min 16 W/m 6,4 km/h (2 Bft) 97,87 %
29.11.2019 16:06 7,4 C 6,1 C 5,6 C 83 % 1014,5 hPa 0,0 l/m 0 min 0 min 14 W/m 0,0 km/h (0 Bft) 97,62 %
29.11.2019 16:08 7,4 C 6,1 C 5,6 C 83 % 1014,5 hPa 0,0 l/m 0 min 0 min 12 W/m 9,7 km/h (2 Bft) 98,00 %
29.11.2019 16:10 7,4 C 6,1 C 5,6 C 83 % 1014,6 hPa 0,0 l/m 0 min 0 min 11 W/m 3,2 km/h (1 Bft) 97,83 %
29.11.2019 16:12 7,4 C 6,1 C 5,6 C 83 % 1014,6 hPa 0,0 l/m 0 min 0 min 11 W/m 0,0 km/h (0 Bft) 97,96 %
29.11.2019 16:14 7,3 C 6,1 C 5,6 C 84 % 1014,6 hPa 0,0 l/m 0 min 0 min 10 W/m 0,0 km/h (0 Bft) 95,74 %
29.11.2019 16:16 7,3 C 6,1 C 5,6 C 84 % 1014,7 hPa 0,0 l/m 0 min 0 min 9 W/m 0,0 km/h (0 Bft) 93,62 %
29.11.2019 16:18 7,3 C 6,1 C 5,6 C 84 % 1014,7 hPa 0,0 l/m 0 min 0 min 7 W/m 0,0 km/h (0 Bft) 97,83 %
29.11.2019 16:20 7,3 C 6,1 C 5,6 C 84 % 1014,8 hPa 0,0 l/m 0 min 0 min 5 W/m 3,2 km/h (1 Bft) 97,67 %
29.11.2019 16:22 7,2 C 6,1 C 5,6 C 84 % 1014,8 hPa 0,0 l/m 0 min 0 min 3 W/m 3,2 km/h (1 Bft) 95,74 %
29.11.2019 16:24 7,2 C 6,1 C 5,6 C 84 % 1014,8 hPa 0,0 l/m 0 min 0 min 0 W/m 3,2 km/h (1 Bft) 95,92 %
29.11.2019 16:26 7,2 C 6,1 C 5,6 C 84 % 1014,9 hPa 0,0 l/m 0 min 0 min 0 W/m 3,2 km/h (1 Bft) 97,87 %
29.11.2019 16:28 7,2 C 6,1 C 5,6 C 84 % 1015,0 hPa 0,0 l/m 0 min 0 min 0 W/m 6,4 km/h (2 Bft) 97,96 %
29.11.2019 16:30 7,1 C 5,6 C 5,6 C 84 % 1015,2 hPa 0,0 l/m 0 min 2 min 0 W/m 19,3 km/h (3 Bft) 97,83 %
29.11.2019 16:32 7,1 C 5,6 C 5,0 C 84 % 1015,1 hPa 0,0 l/m 0 min 2 min 0 W/m 22,5 km/h (4 Bft) 97,87 %
29.11.2019 16:34 7,1 C 5,6 C 5,0 C 84 % 1015,1 hPa 0,0 l/m 0 min 2 min 0 W/m 19,3 km/h (3 Bft) 97,67 %
29.11.2019 16:36 6,9 C 5,6 C 4,4 C 83 % 1015,0 hPa 0,0 l/m 0 min 2 min 0 W/m 12,9 km/h (3 Bft) 97,96 %
29.11.2019 16:38 6,8 C 5,6 C 4,4 C 83 % 1015,1 hPa 0,0 l/m 0 min 2 min 0 W/m 6,4 km/h (2 Bft) 95,74 %
29.11.2019 16:40 6,8 C 5,0 C 4,4 C 82 % 1015,1 hPa 0,0 l/m 0 min 2 min 0 W/m 6,4 km/h (2 Bft) 97,87 %
29.11.2019 16:42 6,8 C 5,0 C 4,4 C 82 % 1015,1 hPa 0,0 l/m 0 min 0 min 0 W/m 6,4 km/h (2 Bft) 97,87 %
29.11.2019 16:44 6,7 C 5,0 C 4,4 C 82 % 1015,1 hPa 0,0 l/m 0 min 0 min 0 W/m 3,2 km/h (1 Bft) 97,87 %
29.11.2019 16:46 6,7 C 5,0 C 4,4 C 83 % 1015,1 hPa 0,0 l/m 0 min 0 min 0 W/m 0,0 km/h (0 Bft) 95,65 %
29.11.2019 16:48 6,7 C 5,0 C 4,4 C 83 % 1015,2 hPa 0,0 l/m 0 min 0 min 0 W/m 6,4 km/h (2 Bft) 95,92 %
29.11.2019 16:50 6,6 C 5,0 C 4,4 C 83 % 1015,3 hPa 0,0 l/m 0 min 0 min 0 W/m 3,2 km/h (1 Bft) 95,74 %
29.11.2019 16:52 6,6 C 5,0 C 4,4 C 83 % 1015,3 hPa 0,0 l/m 0 min 0 min 0 W/m 3,2 km/h (1 Bft) 100,00 %
29.11.2019 16:54 6,6 C 5,0 C 4,4 C 84 % 1015,3 hPa 0,0 l/m 0 min 0 min 0 W/m 3,2 km/h (1 Bft) 100,00 %
29.11.2019 16:56 6,6 C 5,0 C 4,4 C 84 % 1015,3 hPa 0,0 l/m 0 min 0 min 0 W/m 3,2 km/h (1 Bft) 97,67 %
29.11.2019 16:58 6,5 C 5,0 C 4,4 C 84 % 1015,3 hPa 0,0 l/m 0 min 0 min 0 W/m 3,2 km/h (1 Bft) 97,83 %
29.11.2019 17:00 6,5 C 5,0 C 4,4 C 84 % 1015,4 hPa 0,0 l/m 0 min 0 min 0 W/m 3,2 km/h (1 Bft) 92,00 %
29.11.2019 17:02 6,4 C 5,0 C 4,4 C 84 % 1015,4 hPa 0,0 l/m 0 min 0 min 0 W/m 0,0 km/h (0 Bft) 95,74 %
29.11.2019 17:04 6,4 C 4,4 C 4,4 C 84 % 1015,4 hPa 0,0 l/m 0 min 0 min 0 W/m 0,0 km/h (0 Bft) 91,49 %
29.11.2019 17:06 6,4 C 4,4 C 4,4 C 84 % 1015,4 hPa 0,0 l/m 0 min 0 min 0 W/m 0,0 km/h (0 Bft) 93,75 %
29.11.2019 17:08 6,3 C 4,4 C 3,9 C 85 % 1015,5 hPa 0,0 l/m 0 min 0 min 0 W/m 0,0 km/h (0 Bft) 95,74 %
29.11.2019 17:10 6,3 C 4,4 C 3,9 C 85 % 1015,5 hPa 0,0 l/m 0 min 0 min 0 W/m 0,0 km/h (0 Bft) 95,74 %
29.11.2019 17:12 6,3 C 4,4 C 3,9 C 85 % 1015,5 hPa 0,0 l/m 0 min 0 min 0 W/m 0,0 km/h (0 Bft) 95,24 %
29.11.2019 17:14 6,3 C 4,4 C 4,4 C 85 % 1015,6 hPa 0,0 l/m 0 min 0 min 0 W/m 3,2 km/h (1 Bft) 95,74 %
29.11.2019 17:16 6,2 C 4,4 C 4,4 C 85 % 1015,6 hPa 0,0 l/m 0 min 0 min 0 W/m 0,0 km/h (0 Bft) 96,00 %
29.11.2019 17:18 6,2 C 4,4 C 4,4 C 85 % 1015,6 hPa 0,0 l/m 0 min 0 min 0 W/m 0,0 km/h (0 Bft) 95,74 %
29.11.2019 17:20 6,2 C 4,4 C 4,4 C 85 % 1015,6 hPa 0,0 l/m 0 min 0 min 0 W/m 3,2 km/h (1 Bft) 93,75 %
29.11.2019 17:22 6,1 C 4,4 C 4,4 C 86 % 1015,7 hPa 0,0 l/m 0 min 0 min 0 W/m 0,0 km/h (0 Bft) 93,62 %
29.11.2019 17:24 6,1 C 4,4 C 3,9 C 86 % 1015,7 hPa 0,0 l/m 0 min 0 min 0 W/m 0,0 km/h (0 Bft) 95,74 %
29.11.2019 17:26 6,1 C 4,4 C 3,9 C 86 % 1015,8 hPa 0,0 l/m 0 min 0 min 0 W/m 0,0 km/h (0 Bft) 95,74 %
29.11.2019 17:28 6,0 C 4,4 C 3,9 C 86 % 1015,8 hPa 0,0 l/m 0 min 0 min 0 W/m 0,0 km/h (0 Bft) 95,24 %
29.11.2019 17:30 6,0 C 4,4 C 3,9 C 86 % 1015,8 hPa 0,0 l/m 0 min 0 min 0 W/m 0,0 km/h (0 Bft) 95,74 %
29.11.2019 17:32 5,9 C 4,4 C 3,9 C 86 % 1015,8 hPa 0,0 l/m 0 min 0 min 0 W/m 0,0 km/h (0 Bft) 82,00 %
29.11.2019 17:34 5,9 C 4,4 C 3,9 C 86 % 1015,9 hPa 0,0 l/m 0 min 0 min 0 W/m 0,0 km/h (0 Bft) 67,44 %
29.11.2019 17:36 5,9 C 4,4 C 3,9 C 86 % 1015,9 hPa 0,0 l/m 0 min 0 min 0 W/m 0,0 km/h (0 Bft) 93,62 %
29.11.2019 17:38 5,8 C 4,4 C 3,9 C 87 % 1015,9 hPa 0,0 l/m 0 min 0 min 0 W/m 0,0 km/h (0 Bft) 97,83 %
29.11.2019 17:40 5,8 C 4,4 C 3,9 C 87 % 1016,0 hPa 0,0 l/m 0 min 0 min 0 W/m 0,0 km/h (0 Bft) 95,74 %
29.11.2019 17:42 5,8 C 4,4 C 3,9 C 87 % 1016,0 hPa 0,0 l/m 0 min 0 min 0 W/m 0,0 km/h (0 Bft) 97,67 %
29.11.2019 17:44 5,8 C 4,4 C 3,9 C 87 % 1016,0 hPa 0,0 l/m 0 min 0 min 0 W/m 0,0 km/h (0 Bft) 95,92 %
29.11.2019 17:46 5,7 C 4,4 C 3,9 C 87 % 1016,0 hPa 0,0 l/m 0 min 0 min 0 W/m 0,0 km/h (0 Bft) 97,87 %
29.11.2019 17:48 5,7 C 4,4 C 3,9 C 87 % 1016,1 hPa 0,0 l/m 0 min 0 min 0 W/m 0,0 km/h (0 Bft) 95,92 %
29.11.2019 17:50 5,7 C 4,4 C 3,9 C 87 % 1016,1 hPa 0,0 l/m 0 min 0 min 0 W/m 3,2 km/h (1 Bft) 97,83 %
29.11.2019 17:52 5,7 C 4,4 C 3,9 C 88 % 1016,2 hPa 0,0 l/m 0 min 0 min 0 W/m 0,0 km/h (0 Bft) 97,67 %
29.11.2019 17:54 5,7 C 4,4 C 3,9 C 88 % 1016,3 hPa 0,0 l/m 0 min 0 min 0 W/m 3,2 km/h (1 Bft) 97,87 %
29.11.2019 17:56 5,6 C 4,4 C 3,9 C 88 % 1016,3 hPa 0,0 l/m 0 min 0 min 0 W/m 0,0 km/h (0 Bft) 97,96 %
29.11.2019 17:58 5,6 C 4,4 C 3,9 C 88 % 1016,3 hPa 0,0 l/m 0 min 0 min 0 W/m 0,0 km/h (0 Bft) 100,00 %
29.11.2019 18:00 5,6 C 4,4 C 3,9 C 88 % 1016,3 hPa 0,0 l/m 0 min 0 min 0 W/m 0,0 km/h (0 Bft) 97,96 %
29.11.2019 18:02 5,6 C 4,4 C 3,9 C 88 % 1016,3 hPa 0,0 l/m 0 min 0 min 0 W/m 3,2 km/h (1 Bft) 100,00 %
29.11.2019 18:04 5,6 C 4,4 C 3,9 C 88 % 1016,3 hPa 0,0 l/m 0 min 0 min 0 W/m 0,0 km/h (0 Bft) 95,74 %
29.11.2019 18:06 5,6 C 4,4 C 3,9 C 88 % 1016,4 hPa 0,0 l/m 0 min 0 min 0 W/m 0,0 km/h (0 Bft) 100,00 %
29.11.2019 18:08 5,5 C 4,4 C 3,9 C 88 % 1016,4 hPa 0,0 l/m 0 min 0 min 0 W/m 0,0 km/h (0 Bft) 100,00 %
29.11.2019 18:10 5,5 C 4,4 C 3,9 C 88 % 1016,4 hPa 0,0 l/m 0 min 0 min 0 W/m 0,0 km/h (0 Bft) 100,00 %
29.11.2019 18:12 5,5 C 4,4 C 3,9 C 88 % 1016,5 hPa 0,0 l/m 0 min 0 min 0 W/m 3,2 km/h (1 Bft) 98,00 %
29.11.2019 18:14 5,4 C 4,4 C 3,9 C 89 % 1016,5 hPa 0,0 l/m 0 min 0 min 0 W/m 0,0 km/h (0 Bft) 100,00 %
29.11.2019 18:16 5,4 C 4,4 C 3,9 C 89 % 1016,6 hPa 0,0 l/m 0 min 0 min 0 W/m 0,0 km/h (0 Bft) 97,14 %
29.11.2019 18:18 5,4 C 4,4 C 3,3 C 89 % 1016,6 hPa 0,0 l/m 0 min 0 min 0 W/m 0,0 km/h (0 Bft) 97,87 %
29.11.2019 18:20 5,4 C 3,9 C 3,3 C 89 % 1016,6 hPa 0,0 l/m 0 min 0 min 0 W/m 0,0 km/h (0 Bft) 100,00 %
29.11.2019 18:22 5,4 C 3,9 C 3,3 C 89 % 1016,6 hPa 0,0 l/m 0 min 0 min 0 W/m 0,0 km/h (0 Bft) 100,00 %
29.11.2019 18:24 5,4 C 3,9 C 3,3 C 89 % 1016,6 hPa 0,0 l/m 0 min 0 min 0 W/m 0,0 km/h (0 Bft) 100,00 %
29.11.2019 18:26 5,3 C 3,9 C 2,8 C 89 % 1016,6 hPa 0,0 l/m 0 min 0 min 0 W/m 0,0 km/h (0 Bft) 100,00 %
29.11.2019 18:28 5,3 C 3,9 C 2,8 C 89 % 1016,6 hPa 0,0 l/m 0 min 0 min 0 W/m 0,0 km/h (0 Bft) 100,00 %
29.11.2019 18:30 5,3 C 3,9 C 2,8 C 89 % 1016,7 hPa 0,0 l/m 0 min 0 min 0 W/m 0,0 km/h (0 Bft) 100,00 %
29.11.2019 18:32 5,2 C 3,9 C 2,8 C 89 % 1016,7 hPa 0,0 l/m 0 min 0 min 0 W/m 0,0 km/h (0 Bft) 100,00 %
29.11.2019 18:34 5,2 C 3,9 C 2,8 C 89 % 1016,7 hPa 0,0 l/m 0 min 0 min 0 W/m 0,0 km/h (0 Bft) 100,00 %
29.11.2019 18:36 5,2 C 3,3 C 2,8 C 89 % 1016,7 hPa 0,0 l/m 0 min 0 min 0 W/m 0,0 km/h (0 Bft) 97,14 %
29.11.2019 18:38 5,1 C 3,9 C 2,8 C 89 % 1016,8 hPa 0,0 l/m 0 min 0 min 0 W/m 0,0 km/h (0 Bft) 100,00 %
29.11.2019 18:40 5,1 C 3,9 C 2,8 C 89 % 1016,8 hPa 0,0 l/m 0 min 0 min 0 W/m 0,0 km/h (0 Bft) 100,00 %
29.11.2019 18:42 5,1 C 3,9 C 3,3 C 89 % 1016,8 hPa 0,0 l/m 0 min 0 min 0 W/m 0,0 km/h (0 Bft) 100,00 %
29.11.2019 18:44 5,1 C 3,9 C 3,3 C 89 % 1016,8 hPa 0,0 l/m 0 min 0 min 0 W/m 0,0 km/h (0 Bft) 100,00 %
29.11.2019 18:46 5,0 C 3,9 C 3,3 C 89 % 1016,9 hPa 0,0 l/m 0 min 0 min 0 W/m 0,0 km/h (0 Bft) 100,00 %
29.11.2019 18:48 5,0 C 3,9 C 3,3 C 89 % 1016,9 hPa 0,0 l/m 0 min 0 min 0 W/m 0,0 km/h (0 Bft) 100,00 %
29.11.2019 18:50 5,0 C 4,4 C 3,3 C 89 % 1016,9 hPa 0,0 l/m 0 min 0 min 0 W/m 0,0 km/h (0 Bft) 100,00 %
29.11.2019 18:52 4,9 C 4,4 C 3,9 C 90 % 1016,9 hPa 0,0 l/m 0 min 0 min 0 W/m 3,2 km/h (1 Bft) 100,00 %
29.11.2019 18:54 4,9 C 4,4 C 3,9 C 90 % 1016,9 hPa 0,0 l/m 0 min 0 min 0 W/m 3,2 km/h (1 Bft) 100,00 %
29.11.2019 18:56 4,9 C 4,4 C 3,9 C 90 % 1017,0 hPa 0,0 l/m 0 min 0 min 0 W/m 0,0 km/h (0 Bft) 97,87 %
29.11.2019 18:58 5,0 C 4,4 C 3,9 C 90 % 1017,0 hPa 0,0 l/m 0 min 0 min 0 W/m 0,0 km/h (0 Bft) 98,00 %
29.11.2019 19:00 5,0 C 4,4 C 3,9 C 90 % 1017,0 hPa 0,0 l/m 0 min 0 min 0 W/m 3,2 km/h (1 Bft) 100,00 %
29.11.2019 19:02 5,0 C 4,4 C 3,9 C 90 % 1017,1 hPa 0,0 l/m 0 min 0 min 0 W/m 3,2 km/h (1 Bft) 97,92 %
29.11.2019 19:04 5,0 C 4,4 C 3,9 C 90 % 1017,1 hPa 0,0 l/m 0 min 0 min 0 W/m 0,0 km/h (0 Bft) 95,74 %
29.11.2019 19:06 5,0 C 4,4 C 3,9 C 90 % 1017,2 hPa 0,0 l/m 0 min 0 min 0 W/m 3,2 km/h (1 Bft) 97,14 %
29.11.2019 19:08 5,0 C 4,4 C 3,9 C 90 % 1017,2 hPa 0,0 l/m 0 min 0 min 0 W/m 3,2 km/h (1 Bft) 98,15 %
29.11.2019 19:10 5,0 C 4,4 C 3,9 C 90 % 1017,2 hPa 0,0 l/m 0 min 0 min 0 W/m 3,2 km/h (1 Bft) 96,00 %
29.11.2019 19:12 5,0 C 4,4 C 3,9 C 90 % 1017,3 hPa 0,0 l/m 0 min 0 min 0 W/m 6,4 km/h (2 Bft) 93,75 %
29.11.2019 19:14 5,0 C 4,4 C 3,9 C 91 % 1017,3 hPa 0,0 l/m 0 min 0 min 0 W/m 3,2 km/h (1 Bft) 97,14 %
29.11.2019 19:16 5,0 C 4,4 C 3,9 C 91 % 1017,4 hPa 0,0 l/m 0 min 0 min 0 W/m 3,2 km/h (1 Bft) 98,18 %
29.11.2019 19:18 5,0 C 4,4 C 3,9 C 91 % 1017,4 hPa 0,0 l/m 0 min 0 min 0 W/m 6,4 km/h (2 Bft) 93,48 %
29.11.2019 19:20 5,0 C 4,4 C 4,4 C 91 % 1017,4 hPa 0,0 l/m 0 min 0 min 0 W/m 3,2 km/h (1 Bft) 98,00 %
29.11.2019 19:22 5,0 C 4,4 C 4,4 C 91 % 1017,5 hPa 0,0 l/m 0 min 0 min 0 W/m 0,0 km/h (0 Bft) 97,92 %
29.11.2019 19:24 5,1 C 4,4 C 4,4 C 91 % 1017,5 hPa 0,0 l/m 0 min 0 min 0 W/m 0,0 km/h (0 Bft) 97,22 %
29.11.2019 19:26 5,1 C 4,4 C 4,4 C 91 % 1017,5 hPa 0,0 l/m 0 min 0 min 0 W/m 3,2 km/h (1 Bft) 98,15 %
29.11.2019 19:28 5,1 C 4,4 C 4,4 C 91 % 1017,5 hPa 0,0 l/m 0 min 0 min 0 W/m 6,4 km/h (2 Bft) 97,96 %
29.11.2019 19:30 5,1 C 4,4 C 3,9 C 91 % 1017,6 hPa 0,0 l/m 0 min 0 min 0 W/m 3,2 km/h (1 Bft) 95,92 %
29.11.2019 19:32 5,1 C 4,4 C 3,9 C 91 % 1017,6 hPa 0,0 l/m 0 min 0 min 0 W/m 0,0 km/h (0 Bft) 97,14 %
29.11.2019 19:34 5,1 C 4,4 C 3,9 C 91 % 1017,6 hPa 0,0 l/m 0 min 0 min 0 W/m 3,2 km/h (1 Bft) 96,30 %
29.11.2019 19:36 5,1 C 4,4 C 3,9 C 91 % 1017,7 hPa 0,0 l/m 0 min 0 min 0 W/m 3,2 km/h (1 Bft) 96,00 %
29.11.2019 19:38 5,1 C 4,4 C 3,9 C 91 % 1017,7 hPa 0,0 l/m 0 min 0 min 0 W/m 0,0 km/h (0 Bft) 97,83 %
29.11.2019 19:40 5,1 C 4,4 C 3,9 C 91 % 1017,7 hPa 0,0 l/m 0 min 0 min 0 W/m 0,0 km/h (0 Bft) 95,92 %
29.11.2019 19:42 5,1 C 4,4 C 3,9 C 91 % 1017,7 hPa 0,0 l/m 0 min 0 min 0 W/m 0,0 km/h (0 Bft) 55,56 %
29.11.2019 19:44 5,1 C 4,4 C 3,9 C 91 % 1017,7 hPa 0,0 l/m 0 min 0 min 0 W/m 0,0 km/h (0 Bft) 97,87 %
29.11.2019 19:46 5,1 C 4,4 C 3,9 C 91 % 1017,8 hPa 0,0 l/m 0 min 0 min 0 W/m 0,0 km/h (0 Bft) 97,14 %
29.11.2019 19:48 5,1 C 3,9 C 3,9 C 91 % 1017,8 hPa 0,0 l/m 0 min 0 min 0 W/m 3,2 km/h (1 Bft) 97,83 %
29.11.2019 19:50 5,1 C 3,9 C 3,3 C 91 % 1017,8 hPa 0,0 l/m 0 min 0 min 0 W/m 0,0 km/h (0 Bft) 100,00 %
29.11.2019 19:52 5,1 C 3,9 C 3,3 C 91 % 1017,9 hPa 0,0 l/m 0 min 0 min 0 W/m 0,0 km/h (0 Bft) 100,00 %
29.11.2019 19:53 5,1 C 3,9 C 3,3 C 90 % 1017,9 hPa 0,0 l/m 0 min 0 min 0 W/m 0,0 km/h (0 Bft) 97,96 %
29.11.2019 19:56 5,1 C 3,9 C 3,3 C 90 % 1018,0 hPa 0,0 l/m 0 min 0 min 0 W/m 0,0 km/h (0 Bft) 97,14 %
29.11.2019 19:58 5,1 C 3,9 C 3,3 C 90 % 1018,0 hPa 0,0 l/m 0 min 0 min 0 W/m 3,2 km/h (1 Bft) 100,00 %
29.11.2019 20:00 5,0 C 3,9 C 3,3 C 90 % 1018,1 hPa 0,0 l/m 0 min 0 min 0 W/m 0,0 km/h (0 Bft) 97,83 %
29.11.2019 20:02 5,0 C 3,3 C 2,8 C 90 % 1018,1 hPa 0,0 l/m 0 min 0 min 0 W/m 0,0 km/h (0 Bft) 95,74 %
29.11.2019 20:04 4,9 C 3,3 C 2,8 C 90 % 1018,1 hPa 0,0 l/m 0 min 0 min 0 W/m 0,0 km/h (0 Bft) 100,00 %
29.11.2019 20:06 4,9 C 3,3 C 2,8 C 90 % 1018,2 hPa 0,0 l/m 0 min 0 min 0 W/m 0,0 km/h (0 Bft) 97,87 %
29.11.2019 20:08 4,9 C 3,3 C 2,8 C 90 % 1018,2 hPa 0,0 l/m 0 min 0 min 0 W/m 0,0 km/h (0 Bft) 95,74 %
29.11.2019 20:10 4,8 C 3,3 C 2,8 C 90 % 1018,2 hPa 0,0 l/m 0 min 0 min 0 W/m 3,2 km/h (1 Bft) 95,74 %
29.11.2019 20:12 4,8 C 3,3 C 2,8 C 90 % 1018,3 hPa 0,0 l/m 0 min 0 min 0 W/m 3,2 km/h (1 Bft) 95,65 %
29.11.2019 20:14 4,8 C 3,3 C 2,8 C 90 % 1018,3 hPa 0,0 l/m 0 min 0 min 0 W/m 3,2 km/h (1 Bft) 94,92 %
29.11.2019 20:16 4,7 C 3,3 C 2,8 C 90 % 1018,4 hPa 0,0 l/m 0 min 0 min 0 W/m 3,2 km/h (1 Bft) 95,74 %
29.11.2019 20:18 4,7 C 3,3 C 2,8 C 90 % 1018,4 hPa 0,0 l/m 0 min 0 min 0 W/m 0,0 km/h (0 Bft) 94,29 %
29.11.2019 20:20 4,7 C 3,3 C 2,8 C 90 % 1018,4 hPa 0,0 l/m 0 min 0 min 0 W/m 0,0 km/h (0 Bft) 95,74 %
29.11.2019 20:22 4,6 C 2,8 C 2,8 C 90 % 1018,4 hPa 0,0 l/m 0 min 0 min 0 W/m 0,0 km/h (0 Bft) 95,74 %
29.11.2019 20:24 4,6 C 2,8 C 2,8 C 90 % 1018,4 hPa 0,0 l/m 0 min 0 min 0 W/m 0,0 km/h (0 Bft) 96,55 %
29.11.2019 20:26 4,6 C 2,8 C 2,8 C 90 % 1018,5 hPa 0,0 l/m 0 min 0 min 0 W/m 0,0 km/h (0 Bft) 94,29 %
29.11.2019 20:28 4,5 C 2,8 C 2,8 C 90 % 1018,5 hPa 0,0 l/m 0 min 0 min 0 W/m 3,2 km/h (1 Bft) 95,74 %
29.11.2019 20:30 4,4 C 2,8 C 2,8 C 90 % 1018,5 hPa 0,0 l/m 0 min 0 min 0 W/m 0,0 km/h (0 Bft) 93,62 %
29.11.2019 20:32 4,4 C 2,8 C 2,8 C 90 % 1018,6 hPa 0,0 l/m 0 min 0 min 0 W/m 0,0 km/h (0 Bft) 97,87 %
29.11.2019 20:34 4,3 C 2,8 C 2,2 C 90 % 1018,6 hPa 0,0 l/m 0 min 0 min 0 W/m 3,2 km/h (1 Bft) 93,10 %
29.11.2019 20:36 4,3 C 2,8 C 2,2 C 90 % 1018,7 hPa 0,0 l/m 0 min 0 min 0 W/m 3,2 km/h (1 Bft) 97,14 %
29.11.2019 20:38 4,3 C 2,8 C 2,2 C 90 % 1018,7 hPa 0,0 l/m 0 min 0 min 0 W/m 0,0 km/h (0 Bft) 94,92 %
29.11.2019 20:40 4,2 C 2,8 C 2,2 C 90 % 1018,7 hPa 0,0 l/m 0 min 0 min 0 W/m 0,0 km/h (0 Bft) 97,14 %
29.11.2019 20:42 4,2 C 2,8 C 2,2 C 90 % 1018,7 hPa 0,0 l/m 0 min 0 min 0 W/m 3,2 km/h (1 Bft) 93,62 %
29.11.2019 20:44 4,2 C 2,8 C 2,2 C 90 % 1018,7 hPa 0,0 l/m 0 min 0 min 0 W/m 0,0 km/h (0 Bft) 95,74 %
29.11.2019 20:46 4,1 C 2,8 C 2,2 C 90 % 1018,7 hPa 0,0 l/m 0 min 0 min 0 W/m 0,0 km/h (0 Bft) 95,74 %
29.11.2019 20:48 4,1 C 2,8 C 2,2 C 90 % 1018,7 hPa 0,0 l/m 0 min 0 min 0 W/m 0,0 km/h (0 Bft) 95,65 %
29.11.2019 20:50 4,1 C 2,2 C 2,2 C 90 % 1018,8 hPa 0,0 l/m 0 min 0 min 0 W/m 3,2 km/h (1 Bft) 95,74 %
29.11.2019 20:52 4,0 C 2,8 C 2,2 C 90 % 1018,8 hPa 0,0 l/m 0 min 0 min 0 W/m 0,0 km/h (0 Bft) 93,62 %
29.11.2019 20:54 3,9 C 2,8 C 2,2 C 90 % 1018,8 hPa 0,0 l/m 0 min 0 min 0 W/m 3,2 km/h (1 Bft) 95,74 %
29.11.2019 20:56 3,9 C 2,2 C 2,2 C 90 % 1018,9 hPa 0,0 l/m 0 min 0 min 0 W/m 3,2 km/h (1 Bft) 95,74 %
29.11.2019 20:58 3,9 C 2,2 C 2,2 C 90 % 1018,9 hPa 0,0 l/m 0 min 0 min 0 W/m 0,0 km/h (0 Bft) 97,87 %
29.11.2019 21:00 3,8 C 2,2 C 2,2 C 90 % 1018,9 hPa 0,0 l/m 0 min 0 min 0 W/m 0,0 km/h (0 Bft) 95,65 %
29.11.2019 21:02 3,8 C 2,2 C 2,2 C 90 % 1018,9 hPa 0,0 l/m 0 min 0 min 0 W/m 0,0 km/h (0 Bft) 97,87 %
29.11.2019 21:04 3,8 C 2,2 C 2,2 C 91 % 1019,0 hPa 0,0 l/m 0 min 0 min 0 W/m 3,2 km/h (1 Bft) 95,74 %
29.11.2019 21:06 3,8 C 2,8 C 2,2 C 91 % 1018,9 hPa 0,0 l/m 0 min 0 min 0 W/m 0,0 km/h (0 Bft) 97,83 %
29.11.2019 21:08 3,7 C 2,8 C 2,2 C 91 % 1019,0 hPa 0,0 l/m 0 min 0 min 0 W/m 0,0 km/h (0 Bft) 98,28 %
29.11.2019 21:10 3,7 C 2,8 C 2,2 C 91 % 1019,0 hPa 0,0 l/m 0 min 0 min 0 W/m 3,2 km/h (1 Bft) 97,14 %
29.11.2019 21:12 3,7 C 2,2 C 2,2 C 91 % 1018,9 hPa 0,0 l/m 0 min 0 min 0 W/m 3,2 km/h (1 Bft) 98,31 %
29.11.2019 21:14 3,7 C 2,2 C 2,2 C 91 % 1019,0 hPa 0,0 l/m 0 min 0 min 0 W/m 3,2 km/h (1 Bft) 97,87 %
29.11.2019 21:16 3,6 C 2,2 C 2,2 C 91 % 1019,1 hPa 0,0 l/m 0 min 0 min 0 W/m 3,2 km/h (1 Bft) 100,00 %
29.11.2019 21:18 3,6 C 2,2 C 2,2 C 91 % 1019,1 hPa 0,0 l/m 0 min 0 min 0 W/m 3,2 km/h (1 Bft) 97,87 %
29.11.2019 21:20 3,6 C 2,2 C 1,7 C 91 % 1019,1 hPa 0,0 l/m 0 min 0 min 0 W/m 0,0 km/h (0 Bft) 95,74 %
29.11.2019 21:22 3,6 C 2,2 C 1,7 C 91 % 1019,1 hPa 0,0 l/m 0 min 0 min 0 W/m 3,2 km/h (1 Bft) 93,48 %
29.11.2019 21:24 3,6 C 2,2 C 1,7 C 91 % 1019,1 hPa 0,0 l/m 0 min 0 min 0 W/m 3,2 km/h (1 Bft) 97,87 %
29.11.2019 21:26 3,6 C 2,2 C 1,7 C 91 % 1019,2 hPa 0,0 l/m 0 min 0 min 0 W/m 3,2 km/h (1 Bft) 97,87 %
29.11.2019 21:28 3,5 C 2,2 C 1,7 C 91 % 1019,1 hPa 0,0 l/m 0 min 0 min 0 W/m 3,2 km/h (1 Bft) 98,31 %
29.11.2019 21:30 3,4 C 2,2 C 1,7 C 91 % 1019,2 hPa 0,0 l/m 0 min 0 min 0 W/m 0,0 km/h (0 Bft) 94,29 %
29.11.2019 21:32 3,4 C 2,2 C 1,7 C 91 % 1019,2 hPa 0,0 l/m 0 min 0 min 0 W/m 0,0 km/h (0 Bft) 97,87 %
29.11.2019 21:34 3,4 C 2,2 C 1,7 C 91 % 1019,2 hPa 0,0 l/m 0 min 0 min 0 W/m 0,0 km/h (0 Bft) 97,83 %
29.11.2019 21:36 3,4 C 2,2 C 1,7 C 91 % 1019,2 hPa 0,0 l/m 0 min 0 min 0 W/m 3,2 km/h (1 Bft) 95,74 %
29.11.2019 21:38 3,3 C 2,2 C 1,7 C 91 % 1019,2 hPa 0,0 l/m 0 min 0 min 0 W/m 3,2 km/h (1 Bft) 96,61 %
29.11.2019 21:40 3,3 C 2,2 C 1,7 C 92 % 1019,2 hPa 0,0 l/m 0 min 0 min 0 W/m 0,0 km/h (0 Bft) 97,14 %
29.11.2019 21:42 3,3 C 2,2 C 1,7 C 92 % 1019,3 hPa 0,0 l/m 0 min 0 min 0 W/m 6,4 km/h (2 Bft) 93,62 %
29.11.2019 21:44 3,3 C 2,2 C 1,7 C 92 % 1019,4 hPa 0,0 l/m 0 min 0 min 0 W/m 0,0 km/h (0 Bft) 97,83 %
29.11.2019 21:46 3,3 C 2,2 C 1,7 C 92 % 1019,4 hPa 0,0 l/m 0 min 0 min 0 W/m 3,2 km/h (1 Bft) 97,87 %
29.11.2019 21:48 3,2 C 2,2 C 1,7 C 92 % 1019,4 hPa 0,0 l/m 0 min 0 min 0 W/m 0,0 km/h (0 Bft) 97,87 %
29.11.2019 21:50 3,2 C 2,2 C 1,7 C 92 % 1019,4 hPa 0,0 l/m 0 min 0 min 0 W/m 3,2 km/h (1 Bft) 97,87 %
29.11.2019 21:52 3,2 C 1,7 C 1,7 C 92 % 1019,4 hPa 0,0 l/m 0 min 0 min 0 W/m 3,2 km/h (1 Bft) 100,00 %
29.11.2019 21:54 3,2 C 1,7 C 1,7 C 92 % 1019,5 hPa 0,0 l/m 0 min 0 min 0 W/m 3,2 km/h (1 Bft) 96,55 %
29.11.2019 21:56 3,2 C 1,7 C 1,7 C 92 % 1019,5 hPa 0,0 l/m 0 min 0 min 0 W/m 0,0 km/h (0 Bft) 95,74 %
29.11.2019 21:58 3,1 C 1,7 C 1,1 C 92 % 1019,5 hPa 0,0 l/m 0 min 0 min 0 W/m 0,0 km/h (0 Bft) 100,00 %
29.11.2019 22:00 3,1 C 1,7 C 1,1 C 92 % 1019,6 hPa 0,0 l/m 0 min 0 min 0 W/m 0,0 km/h (0 Bft) 100,00 %
29.11.2019 22:02 3,1 C 1,7 C 1,1 C 92 % 1019,6 hPa 0,0 l/m 0 min 0 min 0 W/m 3,2 km/h (1 Bft) 100,00 %
29.11.2019 22:04 3,1 C 1,7 C 1,1 C 92 % 1019,6 hPa 0,0 l/m 0 min 0 min 0 W/m 0,0 km/h (0 Bft) 100,00 %
29.11.2019 22:06 3,1 C 1,7 C 1,1 C 92 % 1019,6 hPa 0,0 l/m 0 min 0 min 0 W/m 3,2 km/h (1 Bft) 100,00 %
29.11.2019 22:08 3,0 C 1,7 C 1,1 C 92 % 1019,7 hPa 0,0 l/m 0 min 0 min 0 W/m 3,2 km/h (1 Bft) 100,00 %
29.11.2019 22:10 3,0 C 1,7 C 1,1 C 92 % 1019,7 hPa 0,0 l/m 0 min 0 min 0 W/m 0,0 km/h (0 Bft) 100,00 %
29.11.2019 22:12 2,9 C 1,7 C 1,1 C 92 % 1019,7 hPa 0,0 l/m 0 min 0 min 0 W/m 3,2 km/h (1 Bft) 100,00 %
29.11.2019 22:14 2,9 C 1,7 C 1,1 C 92 % 1019,7 hPa 0,0 l/m 0 min 0 min 0 W/m 0,0 km/h (0 Bft) 100,00 %
29.11.2019 22:16 2,9 C 1,7 C 1,1 C 92 % 1019,7 hPa 0,0 l/m 0 min 0 min 0 W/m 0,0 km/h (0 Bft) 100,00 %
29.11.2019 22:18 2,9 C 1,7 C 1,1 C 92 % 1019,7 hPa 0,0 l/m 0 min 0 min 0 W/m 0,0 km/h (0 Bft) 97,22 %
29.11.2019 22:20 2,9 C 1,7 C 1,1 C 92 % 1019,7 hPa 0,0 l/m 0 min 0 min 0 W/m 0,0 km/h (0 Bft) 100,00 %
29.11.2019 22:22 2,8 C 1,7 C 1,1 C 92 % 1019,7 hPa 0,0 l/m 0 min 0 min 0 W/m 0,0 km/h (0 Bft) 100,00 %
29.11.2019 22:24 2,8 C 1,7 C 1,1 C 92 % 1019,7 hPa 0,0 l/m 0 min 0 min 0 W/m 3,2 km/h (1 Bft) 98,31 %
29.11.2019 22:26 2,8 C 1,7 C 1,1 C 92 % 1019,7 hPa 0,0 l/m 0 min 0 min 0 W/m 0,0 km/h (0 Bft) 100,00 %
29.11.2019 22:28 2,8 C 1,7 C 1,1 C 92 % 1019,8 hPa 0,0 l/m 0 min 0 min 0 W/m 0,0 km/h (0 Bft) 100,00 %
29.11.2019 22:30 2,8 C 1,7 C 1,1 C 92 % 1019,8 hPa 0,0 l/m 0 min 0 min 0 W/m 0,0 km/h (0 Bft) 100,00 %
29.11.2019 22:32 2,7 C 1,7 C 1,1 C 92 % 1019,8 hPa 0,0 l/m 0 min 0 min 0 W/m 0,0 km/h (0 Bft) 100,00 %
29.11.2019 22:34 2,7 C 1,1 C 1,1 C 93 % 1019,9 hPa 0,0 l/m 0 min 0 min 0 W/m 0,0 km/h (0 Bft) 100,00 %
29.11.2019 22:36 2,7 C 1,1 C 0,6 C 92 % 1019,9 hPa 0,0 l/m 0 min 0 min 0 W/m 0,0 km/h (0 Bft) 100,00 %
29.11.2019 22:38 2,7 C 1,1 C 1,1 C 92 % 1020,0 hPa 0,0 l/m 0 min 0 min 0 W/m 3,2 km/h (1 Bft) 97,87 %
29.11.2019 22:40 2,7 C 1,1 C 1,1 C 92 % 1019,9 hPa 0,0 l/m 0 min 0 min 0 W/m 0,0 km/h (0 Bft) 100,00 %
29.11.2019 22:42 2,6 C 1,1 C 1,1 C 93 % 1020,0 hPa 0,0 l/m 0 min 0 min 0 W/m 3,2 km/h (1 Bft) 100,00 %
29.11.2019 22:44 2,6 C 1,1 C 0,6 C 93 % 1020,1 hPa 0,0 l/m 0 min 0 min 0 W/m 0,0 km/h (0 Bft) 97,83 %
29.11.2019 22:46 2,6 C 1,1 C 0,6 C 93 % 1020,0 hPa 0,0 l/m 0 min 0 min 0 W/m 0,0 km/h (0 Bft) 100,00 %
29.11.2019 22:48 2,6 C 1,1 C 0,6 C 93 % 1020,0 hPa 0,0 l/m 0 min 0 min 0 W/m 0,0 km/h (0 Bft) 100,00 %
29.11.2019 22:50 2,6 C 1,1 C 0,6 C 93 % 1020,1 hPa 0,0 l/m 0 min 0 min 0 W/m 0,0 km/h (0 Bft) 100,00 %
29.11.2019 22:52 2,6 C 1,1 C 0,6 C 93 % 1020,1 hPa 0,0 l/m 0 min 0 min 0 W/m 0,0 km/h (0 Bft) 100,00 %
29.11.2019 22:54 2,5 C 1,1 C 0,6 C 93 % 1020,1 hPa 0,0 l/m 0 min 0 min 0 W/m 0,0 km/h (0 Bft) 100,00 %
29.11.2019 22:56 2,5 C 1,1 C 0,6 C 93 % 1020,1 hPa 0,0 l/m 0 min 0 min 0 W/m 3,2 km/h (1 Bft) 100,00 %
29.11.2019 22:58 2,4 C 1,1 C 0,6 C 93 % 1020,1 hPa 0,0 l/m 0 min 0 min 0 W/m 3,2 km/h (1 Bft) 100,00 %
29.11.2019 23:00 2,4 C 1,1 C 0,6 C 93 % 1020,1 hPa 0,0 l/m 0 min 0 min 0 W/m 0,0 km/h (0 Bft) 100,00 %
29.11.2019 23:02 2,4 C 1,1 C 0,6 C 93 % 1020,1 hPa 0,0 l/m 0 min 0 min 0 W/m 0,0 km/h (0 Bft) 100,00 %
29.11.2019 23:04 2,4 C 1,1 C 0,6 C 93 % 1020,1 hPa 0,0 l/m 0 min 0 min 0 W/m 0,0 km/h (0 Bft) 97,83 %
29.11.2019 23:06 2,4 C 1,1 C 0,6 C 93 % 1020,1 hPa 0,0 l/m 0 min 0 min 0 W/m 3,2 km/h (1 Bft) 100,00 %
29.11.2019 23:08 2,4 C 1,1 C 0,6 C 93 % 1020,2 hPa 0,0 l/m 0 min 0 min 0 W/m 3,2 km/h (1 Bft) 100,00 %
29.11.2019 23:10 2,3 C 1,1 C 0,6 C 93 % 1020,2 hPa 0,0 l/m 0 min 0 min 0 W/m 0,0 km/h (0 Bft) 100,00 %
29.11.2019 23:12 2,3 C 1,1 C 0,6 C 93 % 1020,3 hPa 0,0 l/m 0 min 0 min 0 W/m 3,2 km/h (1 Bft) 97,87 %
29.11.2019 23:14 2,3 C 1,1 C 0,6 C 93 % 1020,3 hPa 0,0 l/m 0 min 0 min 0 W/m 0,0 km/h (0 Bft) 95,74 %
29.11.2019 23:16 2,3 C 1,1 C 0,6 C 93 % 1020,3 hPa 0,0 l/m 0 min 0 min 0 W/m 0,0 km/h (0 Bft) 95,74 %
29.11.2019 23:18 2,3 C 1,1 C 0,6 C 93 % 1020,4 hPa 0,0 l/m 0 min 0 min 0 W/m 0,0 km/h (0 Bft) 93,48 %
29.11.2019 23:20 2,2 C 1,1 C 0,6 C 93 % 1020,4 hPa 0,0 l/m 0 min 0 min 0 W/m 0,0 km/h (0 Bft) 97,87 %
29.11.2019 23:22 2,2 C 1,1 C 0,6 C 93 % 1020,4 hPa 0,0 l/m 0 min 0 min 0 W/m 0,0 km/h (0 Bft) 93,62 %
29.11.2019 23:24 2,2 C 1,1 C 0,6 C 93 % 1020,4 hPa 0,0 l/m 0 min 0 min 0 W/m 0,0 km/h (0 Bft) 94,92 %
29.11.2019 23:26 2,2 C 1,1 C 0,6 C 93 % 1020,4 hPa 0,0 l/m 0 min 0 min 0 W/m 0,0 km/h (0 Bft) 93,48 %
29.11.2019 23:28 2,2 C 1,1 C 0,6 C 93 % 1020,4 hPa 0,0 l/m 0 min 0 min 0 W/m 0,0 km/h (0 Bft) 94,44 %
29.11.2019 23:30 2,2 C 1,1 C 0,6 C 93 % 1020,4 hPa 0,0 l/m 0 min 0 min 0 W/m 0,0 km/h (0 Bft) 95,65 %
29.11.2019 23:32 2,2 C 1,1 C 0,6 C 93 % 1020,5 hPa 0,0 l/m 0 min 0 min 0 W/m 3,2 km/h (1 Bft) 94,92 %
29.11.2019 23:34 2,1 C 1,1 C 0,6 C 93 % 1020,5 hPa 0,0 l/m 0 min 0 min 0 W/m 0,0 km/h (0 Bft) 95,74 %
29.11.2019 23:36 2,1 C 1,1 C 0,6 C 94 % 1020,5 hPa 0,0 l/m 0 min 0 min 0 W/m 0,0 km/h (0 Bft) 97,14 %
29.11.2019 23:38 2,1 C 1,1 C 0,6 C 94 % 1020,5 hPa 0,0 l/m 0 min 0 min 0 W/m 0,0 km/h (0 Bft) 95,74 %
29.11.2019 23:40 2,1 C 1,1 C 0,6 C 94 % 1020,6 hPa 0,0 l/m 0 min 0 min 0 W/m 0,0 km/h (0 Bft) 95,65 %
29.11.2019 23:42 2,1 C 1,1 C 0,6 C 94 % 1020,6 hPa 0,0 l/m 0 min 0 min 0 W/m 0,0 km/h (0 Bft) 95,74 %
29.11.2019 23:44 2,1 C 1,1 C 0,6 C 94 % 1020,6 hPa 0,0 l/m 0 min 0 min 0 W/m 0,0 km/h (0 Bft) 95,74 %
29.11.2019 23:46 2,1 C 1,1 C 0,6 C 94 % 1020,6 hPa 0,0 l/m 0 min 0 min 0 W/m 0,0 km/h (0 Bft) 91,49 %
29.11.2019 23:48 2,1 C 1,1 C 0,6 C 94 % 1020,7 hPa 0,0 l/m 0 min 0 min 0 W/m 0,0 km/h (0 Bft) 95,74 %
29.11.2019 23:50 2,1 C 1,1 C 0,6 C 94 % 1020,7 hPa 0,0 l/m 0 min 0 min 0 W/m 3,2 km/h (1 Bft) 95,74 %
29.11.2019 23:52 2,1 C 0,6 C 0,6 C 94 % 1020,8 hPa 0,0 l/m 0 min 0 min 0 W/m 0,0 km/h (0 Bft) 97,83 %
29.11.2019 23:54 2,0 C 1,1 C 0,6 C 94 % 1020,8 hPa 0,0 l/m 0 min 0 min 0 W/m 0,0 km/h (0 Bft) 97,87 %
29.11.2019 23:56 2,0 C 1,1 C 0,6 C 94 % 1020,9 hPa 0,0 l/m 0 min 0 min 0 W/m 3,2 km/h (1 Bft) 97,87 %
29.11.2019 23:58 2,0 C 0,6 C 0,6 C 94 % 1020,8 hPa 0,0 l/m 0 min 0 min 0 W/m 3,2 km/h (1 Bft) 97,87 %
_ Min-Zeit 23:54 23:52 22:36 13:24 00:00 - - - - 00:18 14:34
Minimum _ 2,0 C 0,6 C 0,6 C 76 % 1000,0 hPa - - - - 0,0 km/h (0 Bft) 54,35 %
_ Max-Zeit 13:10 12:22 12:18 00:00 23:56 00:34 09:56 00:00 13:52 12:10 00:36
Maximum _ 9,4 C 14,4 C 10,0 C 99 % 1020,9 hPa 0,2 l/m 2 min 2 min 337 W/m 22,5 km/h
W-SW (4 Bft)
100,00 %
Durchschnitt _ 5,8 C 5,6 C 4,3 C 92 % 1011,0 hPa #0,6 l/m #4:40 h #1:30 h 155 W/m 4,3 km/h (1 Bft) 97,26 %
© 2019 W. Hausmann